| time (UTC) | temp C | wind direction | speed KPH | gust KPH | rain 1hr cm | rain 24hr cm | rain mn cm | humidity % | barometer mb |
| 20260509090557 | 20 | 158 | 6.4 | 16.1 | 0.00 | 0.08 | 0.00 | 88 | 1007.6 |
| 20260509090356 | 20 | 153 | 4.8 | 16.1 | 0.00 | 0.08 | 0.00 | 88 | 1007.5 |
| 20260509090256 | 20 | 150 | 4.8 | 19.3 | 0.00 | 0.08 | 0.00 | 88 | 1007.6 |
| 20260509090157 | 20 | 165 | 6.4 | 19.3 | 0.00 | 0.08 | 0.00 | 88 | 1007.5 |
| 20260509090104 | 20 | 146 | 8.0 | 19.3 | 0.00 | 0.08 | 0.00 | 88 | 1006.7 |
| 20260509090057 | 20 | 146 | 9.7 | 19.3 | 0.00 | 0.08 | 0.00 | 88 | 1007.6 |
| 20260509085958 | 20 | 141 | 9.7 | 19.3 | 0.00 | 0.08 | 0.00 | 88 | 1007.6 |
| 20260509085857 | 20 | 156 | 9.7 | 19.3 | 0.00 | 0.08 | 0.00 | 87 | 1007.5 |
| 20260509085757 | 20 | 140 | 9.7 | 19.3 | 0.00 | 0.08 | 0.00 | 87 | 1007.5 |
| 20260509085657 | 20 | 136 | 9.7 | 19.3 | 0.00 | 0.08 | 0.00 | 87 | 1007.5 |
| 20260509085558 | 20 | 141 | 11.3 | 19.3 | 0.00 | 0.08 | 0.00 | 87 | 1007.5 |
| 20260509085457 | 20 | 127 | 9.7 | 19.3 | 0.00 | 0.08 | 0.00 | 87 | 1007.5 |
| 20260509085357 | 20 | 151 | 9.7 | 17.7 | 0.00 | 0.08 | 0.00 | 87 | 1007.5 |
| 20260509085257 | 20 | 159 | 9.7 | 17.7 | 0.00 | 0.08 | 0.00 | 87 | 1007.5 |
| 20260509085057 | 20 | 153 | 9.7 | 17.7 | 0.00 | 0.08 | 0.00 | 87 | 1007.5 |
| 20260509084957 | 20 | 161 | 8.0 | 17.7 | 0.00 | 0.08 | 0.00 | 87 | 1007.7 |
| 20260509084857 | 20 | 144 | 6.4 | 12.9 | 0.00 | 0.08 | 0.00 | 87 | 1007.8 |
| 20260509084757 | 20 | 138 | 6.4 | 12.9 | 0.00 | 0.08 | 0.00 | 87 | 1008.0 |
| 20260509084657 | 20 | 141 | 6.4 | 12.9 | 0.00 | 0.08 | 0.00 | 87 | 1008.1 |
| 20260509084606 | 20 | 113 | 4.8 | 11.3 | 0.00 | 0.08 | 0.00 | 87 | 1007.4 |
| 20260509084557 | 20 | 113 | 4.8 | 11.3 | 0.00 | 0.08 | 0.00 | 87 | 1008.2 |
| 20260509084457 | 20 | 107 | 4.8 | 9.7 | 0.00 | 0.08 | 0.00 | 87 | 1008.3 |
| 20260509084357 | 20 | 105 | 3.2 | 9.7 | 0.00 | 0.08 | 0.00 | 87 | 1008.3 |
| 20260509084157 | 20 | 82 | 3.2 | 9.7 | 0.00 | 0.08 | 0.00 | 87 | 1008.5 |
| 20260509083958 | 20 | 84 | 4.8 | 9.7 | 0.00 | 0.08 | 0.00 | 87 | 1008.4 |
| 20260509083857 | 20 | 105 | 6.4 | 11.3 | 0.00 | 0.08 | 0.00 | 87 | 1008.3 |
| 20260509083757 | 20 | 83 | 4.8 | 9.7 | 0.00 | 0.08 | 0.00 | 87 | 1008.3 |
| 20260509083557 | 20 | 128 | 3.2 | 9.7 | 0.00 | 0.08 | 0.00 | 87 | 1008.4 |
| 20260509083457 | 20 | 84 | 3.2 | 11.3 | 0.00 | 0.08 | 0.00 | 87 | 1008.5 |
| 20260509083357 | 20 | 105 | 3.2 | 9.7 | 0.00 | 0.08 | 0.00 | 87 | 1008.5 |
| 20260509083257 | 20 | 98 | 4.8 | 16.1 | 0.00 | 0.08 | 0.00 | 87 | 1008.5 |
| 20260509083157 | 20 | 95 | 4.8 | 16.1 | 0.00 | 0.08 | 0.00 | 87 | 1008.5 |
| 20260509083057 | 20 | 98 | 3.2 | 16.1 | 0.00 | 0.08 | 0.00 | 87 | 1008.5 |
| 20260509083055 | 20 | 98 | 3.2 | 16.1 | 0.00 | 0.08 | 0.00 | 87 | 1007.7 |
| 20260509082957 | 20 | 88 | 1.6 | 16.1 | 0.00 | 0.08 | 0.00 | 87 | 1008.5 |
| 20260509082758 | 20 | 73 | 3.2 | 16.1 | 0.00 | 0.08 | 0.00 | 87 | 1008.4 |
| 20260509082657 | 20 | 98 | 6.4 | 16.1 | 0.00 | 0.08 | 0.00 | 87 | 1008.2 |
| 20260509082258 | 20 | 90 | 6.4 | 16.1 | 0.00 | 0.08 | 0.00 | 87 | 1008.0 |
| 20260509082157 | 20 | 114 | 9.7 | 16.1 | 0.00 | 0.08 | 0.00 | 87 | 1008.0 |
| 20260509082057 | 20 | 87 | 9.7 | 16.1 | 0.00 | 0.08 | 0.00 | 87 | 1008.0 |
| 20260509081957 | 20 | 97 | 8.0 | 16.1 | 0.00 | 0.08 | 0.00 | 87 | 1008.0 |
| 20260509081857 | 20 | 87 | 6.4 | 16.1 | 0.00 | 0.08 | 0.00 | 87 | 1008.0 |
| 20260509081757 | 20 | 96 | 6.4 | 16.1 | 0.00 | 0.08 | 0.00 | 87 | 1007.9 |
| 20260509081657 | 20 | 98 | 6.4 | 16.1 | 0.00 | 0.08 | 0.00 | 87 | 1007.8 |
| 20260509081557 | 20 | 96 | 6.4 | 17.7 | 0.00 | 0.08 | 0.00 | 87 | 1007.8 |
| 20260509081456 | 20 | 98 | 6.4 | 19.3 | 0.00 | 0.08 | 0.00 | 87 | 1007.8 |
| 20260509081158 | 20 | 105 | 8.0 | 19.3 | 0.00 | 0.08 | 0.00 | 87 | 1007.9 |
| 20260509080957 | 20 | 103 | 11.3 | 19.3 | 0.00 | 0.08 | 0.00 | 87 | 1007.9 |
| 20260509080858 | 20 | 101 | 12.9 | 19.3 | 0.00 | 0.08 | 0.00 | 87 | 1007.9 |
| 20260509080657 | 20 | 91 | 8.0 | 16.1 | 0.00 | 0.08 | 0.00 | 87 | 1008.1 |
| 20260509080557 | 20 | 96 | 8.0 | 16.1 | 0.00 | 0.08 | 0.00 | 87 | 1008.1 |
| 20260509080357 | 20 | 94 | 8.0 | 16.1 | 0.00 | 0.08 | 0.00 | 87 | 1008.2 |
| 20260509080258 | 20 | 109 | 8.0 | 16.1 | 0.00 | 0.08 | 0.00 | 87 | 1008.2 |
| 20260509080158 | 20 | 101 | 8.0 | 16.1 | 0.00 | 0.08 | 0.00 | 87 | 1008.1 |
| 20260509080058 | 20 | 106 | 6.4 | 16.1 | 0.00 | 0.08 | 0.00 | 87 | 1007.2 |
| 20260509075959 | 20 | 103 | 8.0 | 16.1 | 0.00 | 0.08 | 0.00 | 87 | 1008.1 |
| 20260509075755 | 20 | 125 | 4.8 | 17.7 | 0.00 | 0.08 | 0.00 | 87 | 1008.2 |
| 20260509075656 | 20 | 126 | 4.8 | 19.3 | 0.00 | 0.08 | 0.00 | 87 | 1008.2 |
| 20260509075556 | 20 | 126 | 8.0 | 19.3 | 0.00 | 0.08 | 0.00 | 87 | 1008.2 |
| 20260509075456 | 20 | 125 | 8.0 | 19.3 | 0.00 | 0.08 | 0.00 | 87 | 1008.2 |
| 20260509075357 | 20 | 121 | 9.7 | 19.3 | 0.00 | 0.08 | 0.00 | 87 | 1008.2 |
| 20260509075257 | 20 | 111 | 9.7 | 19.3 | 0.00 | 0.08 | 0.00 | 87 | 1008.3 |
| 20260509075156 | 20 | 98 | 9.7 | 19.3 | 0.00 | 0.08 | 0.00 | 87 | 1008.4 |
| 20260509075056 | 20 | 115 | 11.3 | 19.3 | 0.00 | 0.08 | 0.00 | 87 | 1008.3 |
| 20260509074956 | 20 | 105 | 12.9 | 19.3 | 0.00 | 0.08 | 0.00 | 87 | 1008.4 |
| 20260509074856 | 20 | 106 | 11.3 | 19.3 | 0.00 | 0.08 | 0.00 | 87 | 1008.5 |
| 20260509074757 | 20 | 110 | 8.0 | 19.3 | 0.00 | 0.08 | 0.00 | 87 | 1008.5 |
| 20260509074656 | 20 | 115 | 8.0 | 14.5 | 0.00 | 0.08 | 0.00 | 87 | 1008.6 |
| 20260509074601 | 20 | 117 | 6.4 | 17.7 | 0.00 | 0.08 | 0.00 | 87 | 1007.9 |
| 20260509074556 | 20 | 117 | 8.0 | 17.7 | 0.00 | 0.08 | 0.00 | 87 | 1008.7 |
| 20260509074356 | 20 | 113 | 6.4 | 17.7 | 0.00 | 0.08 | 0.00 | 87 | 1008.7 |
| 20260509074257 | 20 | 113 | 6.4 | 17.7 | 0.00 | 0.08 | 0.00 | 87 | 1008.7 |
| 20260509074156 | 20 | 92 | 4.8 | 17.7 | 0.00 | 0.08 | 0.00 | 87 | 1008.7 |
| 20260509074056 | 20 | 115 | 4.8 | 17.7 | 0.00 | 0.08 | 0.00 | 87 | 1008.7 |
| 20260509073956 | 20 | 126 | 6.4 | 17.7 | 0.00 | 0.08 | 0.00 | 87 | 1008.6 |
| 20260509073856 | 20 | 106 | 6.4 | 17.7 | 0.00 | 0.08 | 0.00 | 87 | 1008.6 |
| 20260509073755 | 20 | 128 | 9.7 | 17.7 | 0.00 | 0.08 | 0.00 | 87 | 1008.6 |
| 20260509073656 | 20 | 128 | 8.0 | 16.1 | 0.00 | 0.08 | 0.00 | 87 | 1008.7 |
| 20260509073356 | 20 | 138 | 6.4 | 12.9 | 0.00 | 0.08 | 0.00 | 87 | 1008.6 |
| 20260509073256 | 20 | 117 | 4.8 | 12.9 | 0.00 | 0.08 | 0.00 | 87 | 1008.6 |
| 20260509073155 | 20 | 123 | 4.8 | 16.1 | 0.00 | 0.08 | 0.00 | 87 | 1008.7 |
| 20260509073056 | 20 | 98 | 4.8 | 16.1 | 0.00 | 0.08 | 0.00 | 87 | 1008.7 |
| 20260509072955 | 20 | 116 | 6.4 | 16.1 | 0.00 | 0.08 | 0.00 | 86 | 1008.6 |
| 20260509072855 | 20 | 107 | 4.8 | 17.7 | 0.00 | 0.08 | 0.00 | 86 | 1008.6 |
| 20260509072756 | 20 | 101 | 3.2 | 17.7 | 0.00 | 0.08 | 0.00 | 86 | 1008.5 |
| 20260509072656 | 20 | 134 | 1.6 | 17.7 | 0.00 | 0.08 | 0.00 | 86 | 1008.6 |
| 20260509072556 | 20 | 136 | 3.2 | 17.7 | 0.00 | 0.08 | 0.00 | 86 | 1008.6 |
| 20260509072457 | 20 | 171 | 6.4 | 17.7 | 0.00 | 0.08 | 0.00 | 86 | 1008.6 |
| 20260509072355 | 20 | 134 | 6.4 | 17.7 | 0.00 | 0.08 | 0.00 | 86 | 1008.6 |
| 20260509072255 | 20 | 130 | 6.4 | 17.7 | 0.00 | 0.08 | 0.00 | 86 | 1008.5 |
| 20260509072156 | 20 | 135 | 6.4 | 17.7 | 0.00 | 0.08 | 0.00 | 86 | 1008.5 |
| 20260509072056 | 20 | 121 | 9.7 | 17.7 | 0.00 | 0.08 | 0.00 | 86 | 1008.4 |
| 20260509071955 | 20 | 126 | 8.0 | 17.7 | 0.00 | 0.08 | 0.00 | 86 | 1008.5 |
| 20260509071856 | 20 | 144 | 8.0 | 14.5 | 0.00 | 0.08 | 0.00 | 86 | 1008.6 |
| 20260509071756 | 20 | 153 | 8.0 | 14.5 | 0.00 | 0.08 | 0.00 | 86 | 1008.7 |
| 20260509071656 | 20 | 130 | 8.0 | 14.5 | 0.00 | 0.08 | 0.00 | 86 | 1008.8 |
| 20260509071603 | 20 | 136 | 6.4 | 12.9 | 0.00 | 0.08 | 0.00 | 86 | 1008.0 |
| 20260509071556 | 20 | 136 | 6.4 | 12.9 | 0.00 | 0.08 | 0.00 | 86 | 1008.8 |
| 20260509071356 | 20 | 136 | 6.4 | 12.9 | 0.00 | 0.08 | 0.00 | 86 | 1008.9 |
| 20260509071156 | 20 | 140 | 8.0 | 12.9 | 0.00 | 0.08 | 0.00 | 86 | 1008.9 |
| 20260509071056 | 20 | 133 | 6.4 | 11.3 | 0.00 | 0.08 | 0.00 | 86 | 1008.9 |
| 20260509070955 | 20 | 140 | 3.2 | 11.3 | 0.00 | 0.08 | 0.00 | 86 | 1008.9 |
| 20260509070855 | 20 | 143 | 1.6 | 9.7 | 0.00 | 0.08 | 0.00 | 86 | 1009.0 |
| 20260509070756 | 20 | 136 | 1.6 | 4.8 | 0.00 | 0.08 | 0.00 | 86 | 1009.1 |
| 20260509070657 | 20 | 150 | 3.2 | 3.2 | 0.00 | 0.08 | 0.00 | 86 | 1009.2 |
| 20260509070456 | 20 | 143 | 1.6 | 6.4 | 0.00 | 0.08 | 0.00 | 86 | 1009.2 |
| 20260509070255 | 20 | 144 | 1.6 | 6.4 | 0.00 | 0.08 | 0.00 | 86 | 1009.2 |
| 20260509070156 | 20 | 131 | 1.6 | 6.4 | 0.00 | 0.08 | 0.00 | 86 | 1009.2 |
| 20260509070105 | 20 | 142 | 0.0 | 6.4 | 0.00 | 0.08 | 0.00 | 86 | 1008.4 |
| 20260509065856 | 20 | 125 | 1.6 | 6.4 | 0.00 | 0.08 | 0.00 | 86 | 1009.2 |
| 20260509065655 | 20 | 117 | 3.2 | 6.4 | 0.00 | 0.08 | 0.00 | 86 | 1009.3 |
| 20260509065555 | 20 | 132 | 3.2 | 6.4 | 0.00 | 0.08 | 0.00 | 86 | 1009.3 |
| 20260509065456 | 20 | 142 | 3.2 | 6.4 | 0.00 | 0.08 | 0.00 | 86 | 1009.4 |
| 20260509065356 | 20 | 139 | 3.2 | 6.4 | 0.00 | 0.08 | 0.00 | 86 | 1009.4 |
| 20260509065155 | 20 | 152 | 3.2 | 4.8 | 0.00 | 0.08 | 0.00 | 86 | 1009.5 |
| 20260509065055 | 20 | 156 | 1.6 | 3.2 | 0.00 | 0.08 | 0.00 | 86 | 1009.5 |
| 20260509064956 | 20 | 113 | 1.6 | 3.2 | 0.00 | 0.08 | 0.00 | 86 | 1009.5 |
| 20260509064856 | 20 | 111 | 1.6 | 3.2 | 0.00 | 0.08 | 0.00 | 86 | 1009.6 |
| 20260509064755 | 20 | 111 | 1.6 | 3.2 | 0.00 | 0.08 | 0.00 | 86 | 1009.5 |
| 20260509064556 | 20 | 103 | 1.6 | 3.2 | 0.00 | 0.08 | 0.00 | 86 | 1009.6 |
| 20260509064356 | 20 | 103 | 3.2 | 3.2 | 0.00 | 0.08 | 0.00 | 86 | 1009.8 |
| 20260509064056 | 20 | 90 | 1.6 | 3.2 | 0.00 | 0.08 | 0.00 | 86 | 1009.8 |
| 20260509063956 | 20 | 78 | 0.0 | 3.2 | 0.00 | 0.08 | 0.00 | 85 | 1009.9 |
| 20260509063855 | 20 | 44 | 0.0 | 0.0 | 0.00 | 0.08 | 0.00 | 85 | 1010.0 |
| 20260509063656 | 20 | 44 | 0.0 | 0.0 | 0.00 | 0.08 | 0.00 | 85 | 1010.0 |
| 20260509063456 | 20 | 44 | 0.0 | 4.8 | 0.00 | 0.08 | 0.00 | 85 | 1010.0 |
| 20260509063256 | 20 | 44 | 0.0 | 4.8 | 0.00 | 0.08 | 0.00 | 86 | 1010.0 |
| 20260509063157 | 20 | 44 | 0.0 | 4.8 | 0.00 | 0.08 | 0.00 | 86 | 1009.9 |
| 20260509063055 | 20 | 44 | 0.0 | 8.0 | 0.00 | 0.08 | 0.00 | 86 | 1009.1 |
| 20260509062957 | 20 | 44 | 0.0 | 8.0 | 0.00 | 0.08 | 0.00 | 86 | 1010.0 |
| 20260509062858 | 20 | 44 | 0.0 | 8.0 | 0.00 | 0.08 | 0.00 | 86 | 1010.0 |
| 20260509062758 | 20 | 44 | 1.6 | 8.0 | 0.00 | 0.08 | 0.00 | 86 | 1010.1 |
| 20260509062656 | 20 | 44 | 1.6 | 8.0 | 0.00 | 0.08 | 0.00 | 86 | 1010.1 |
| 20260509062555 | 20 | 57 | 1.6 | 8.0 | 0.00 | 0.08 | 0.00 | 86 | 1010.1 |
| 20260509062455 | 20 | 57 | 3.2 | 8.0 | 0.00 | 0.08 | 0.00 | 86 | 1010.0 |
| 20260509062257 | 20 | 42 | 1.6 | 4.8 | 0.00 | 0.08 | 0.00 | 86 | 1010.0 |
| 20260509062156 | 20 | 34 | 0.0 | 3.2 | 0.00 | 0.08 | 0.00 | 86 | 1009.9 |
| 20260509062055 | 20 | 60 | 0.0 | 3.2 | 0.00 | 0.08 | 0.00 | 86 | 1009.9 |
| 20260509061955 | 20 | 60 | 0.0 | 11.3 | 0.00 | 0.08 | 0.00 | 86 | 1009.9 |
| 20260509061855 | 20 | 60 | 0.0 | 11.3 | 0.00 | 0.08 | 0.00 | 86 | 1009.8 |
| 20260509061756 | 20 | 60 | 0.0 | 11.3 | 0.00 | 0.08 | 0.00 | 86 | 1009.8 |
| 20260509061657 | 20 | 60 | 0.0 | 11.3 | 0.00 | 0.08 | 0.00 | 86 | 1009.8 |
| 20260509061602 | 20 | 60 | 0.0 | 11.3 | 0.00 | 0.08 | 0.00 | 86 | 1009.0 |
| 20260509061556 | 20 | 60 | 0.0 | 11.3 | 0.00 | 0.08 | 0.00 | 86 | 1009.8 |
| 20260509061456 | 20 | 60 | 1.6 | 16.1 | 0.00 | 0.08 | 0.00 | 86 | 1009.9 |
| 20260509061356 | 20 | 60 | 3.2 | 16.1 | 0.00 | 0.08 | 0.00 | 86 | 1009.8 |
| 20260509061156 | 20 | 57 | 8.0 | 24.1 | 0.00 | 0.08 | 0.00 | 86 | 1009.8 |
| 20260509061057 | 20 | 77 | 6.4 | 24.1 | 0.00 | 0.08 | 0.00 | 86 | 1009.9 |
| 20260509060957 | 20 | 51 | 4.8 | 24.1 | 0.00 | 0.08 | 0.00 | 87 | 1010.0 |
| 20260509060857 | 20 | 349 | 3.2 | 24.1 | 0.00 | 0.08 | 0.00 | 87 | 1010.0 |
| 20260509060556 | 20 | 95 | 11.3 | 24.1 | 0.00 | 0.08 | 0.00 | 87 | 1009.9 |
| 20260509060456 | 20 | 67 | 9.7 | 24.1 | 0.00 | 0.08 | 0.00 | 87 | 1010.0 |
| 20260509060355 | 19 | 34 | 8.0 | 17.7 | 0.00 | 0.08 | 0.00 | 88 | 1010.0 |
| 20260509060255 | 19 | 63 | 8.0 | 17.7 | 0.00 | 0.08 | 0.00 | 88 | 1010.0 |
| 20260509060100 | 19 | 63 | 8.0 | 17.7 | 0.00 | 0.08 | 0.00 | 88 | 1009.3 |
| 20260509060056 | 19 | 63 | 8.0 | 17.7 | 0.00 | 0.08 | 0.00 | 88 | 1010.1 |
| 20260509060005 | 19 | 23 | 8.0 | 17.7 | 0.00 | 0.08 | 0.00 | 88 | 1009.3 |
| 20260509055902 | 19 | 18 | 8.0 | 14.5 | 0.00 | 0.08 | 0.00 | 88 | 1010.1 |
| 20260509055803 | 19 | 26 | 9.7 | 14.5 | 0.00 | 0.08 | 0.00 | 88 | 1010.0 |
| 20260509055703 | 19 | 26 | 9.7 | 14.5 | 0.00 | 0.08 | 0.00 | 89 | 1010.0 |
| 20260509055603 | 19 | 360 | 9.7 | 14.5 | 0.00 | 0.08 | 0.00 | 89 | 1009.9 |
| 20260509055502 | 19 | 360 | 11.3 | 14.5 | 0.00 | 0.08 | 0.00 | 89 | 1009.8 |
| 20260509055402 | 18 | 30 | 8.0 | 12.9 | 0.00 | 0.08 | 0.00 | 89 | 1009.8 |
| 20260509055306 | 18 | 16 | 6.4 | 9.7 | 0.00 | 0.08 | 0.00 | 89 | 1009.7 |
| 20260509055202 | 18 | 15 | 3.2 | 6.4 | 0.00 | 0.08 | 0.00 | 89 | 1009.5 |
| 20260509055102 | 18 | 338 | 1.6 | 4.8 | 0.00 | 0.08 | 0.00 | 89 | 1009.3 |
| 20260509055002 | 19 | 230 | 0.0 | 6.4 | 0.00 | 0.08 | 0.00 | 89 | 1009.1 |
| 20260509054903 | 19 | 182 | 1.6 | 6.4 | 0.00 | 0.08 | 0.00 | 89 | 1009.0 |
| 20260509054802 | 18 | 182 | 1.6 | 9.7 | 0.00 | 0.08 | 0.00 | 88 | 1008.8 |
| 20260509054702 | 19 | 184 | 1.6 | 9.7 | 0.00 | 0.08 | 0.00 | 88 | 1008.6 |
| 20260509054504 | 19 | 194 | 1.6 | 11.3 | 0.00 | 0.08 | 0.00 | 88 | 1007.8 |
| 20260509054402 | 19 | 191 | 1.6 | 11.3 | 0.00 | 0.08 | 0.00 | 88 | 1008.5 |
| 20260509054101 | 19 | 204 | 4.8 | 11.3 | 0.00 | 0.08 | 0.00 | 88 | 1008.2 |
| 20260509054002 | 19 | 185 | 4.8 | 11.3 | 0.00 | 0.08 | 0.00 | 88 | 1008.2 |
| 20260509053902 | 19 | 207 | 6.4 | 11.3 | 0.00 | 0.08 | 0.00 | 88 | 1008.3 |
| 20260509053801 | 19 | 184 | 8.0 | 11.3 | 0.00 | 0.08 | 0.00 | 88 | 1008.2 |
| 20260509053702 | 19 | 207 | 6.4 | 11.3 | 0.00 | 0.08 | 0.00 | 88 | 1008.2 |
| 20260509053503 | 19 | 186 | 6.4 | 11.3 | 0.00 | 0.08 | 0.00 | 87 | 1008.1 |
| 20260509053402 | 19 | 179 | 4.8 | 11.3 | 0.00 | 0.08 | 0.00 | 87 | 1008.2 |
| 20260509053302 | 19 | 185 | 4.8 | 11.3 | 0.00 | 0.08 | 0.00 | 87 | 1008.2 |
| 20260509053203 | 19 | 202 | 4.8 | 11.3 | 0.00 | 0.08 | 0.00 | 87 | 1008.2 |
| 20260509053103 | 19 | 184 | 4.8 | 11.3 | 0.00 | 0.08 | 0.00 | 87 | 1008.3 |
| 20260509053003 | 19 | 190 | 4.8 | 11.3 | 0.00 | 0.08 | 0.00 | 87 | 1007.5 |
| 20260509052903 | 19 | 182 | 6.4 | 11.3 | 0.00 | 0.08 | 0.00 | 87 | 1008.3 |
| 20260509052803 | 19 | 186 | 4.8 | 11.3 | 0.00 | 0.08 | 0.00 | 87 | 1008.4 |
| 20260509052703 | 19 | 186 | 6.4 | 11.3 | 0.00 | 0.08 | 0.00 | 87 | 1008.4 |
| 20260509052503 | 19 | 185 | 4.8 | 6.4 | 0.00 | 0.08 | 0.00 | 86 | 1008.6 |
| 20260509052403 | 19 | 188 | 4.8 | 6.4 | 0.00 | 0.08 | 0.00 | 86 | 1008.8 |
| 20260509052306 | 19 | 208 | 3.2 | 6.4 | 0.00 | 0.08 | 0.00 | 86 | 1008.9 |
| 20260509052202 | 19 | 192 | 3.2 | 6.4 | 0.00 | 0.08 | 0.00 | 86 | 1009.0 |
| 20260509052003 | 19 | 217 | 1.6 | 9.7 | 0.00 | 0.08 | 0.00 | 86 | 1009.1 |
| 20260509051803 | 19 | 228 | 0.0 | 9.7 | 0.00 | 0.08 | 0.00 | 86 | 1009.2 |
| 20260509051702 | 19 | 227 | 1.6 | 9.7 | 0.00 | 0.08 | 0.00 | 86 | 1009.1 |
| 20260509051602 | 19 | 219 | 1.6 | 9.7 | 0.00 | 0.08 | 0.00 | 86 | 1009.1 |
| 20260509051502 | 19 | 193 | 3.2 | 9.7 | 0.00 | 0.08 | 0.00 | 86 | 1009.1 |
| 20260509051302 | 19 | 206 | 3.2 | 9.7 | 0.00 | 0.08 | 0.00 | 86 | 1008.9 |
| 20260509051202 | 19 | 211 | 4.8 | 9.7 | 0.00 | 0.08 | 0.00 | 86 | 1008.9 |
| 20260509051103 | 20 | 196 | 4.8 | 9.7 | 0.00 | 0.08 | 0.00 | 86 | 1008.9 |
| 20260509050902 | 19 | 213 | 3.2 | 8.0 | 0.00 | 0.08 | 0.00 | 86 | 1009.1 |
| 20260509050803 | 20 | 202 | 1.6 | 8.0 | 0.00 | 0.08 | 0.00 | 86 | 1009.1 |
| 20260509050603 | 20 | 217 | 1.6 | 6.4 | 0.00 | 0.08 | 0.00 | 86 | 1009.3 |
| 20260509050402 | 19 | 211 | 1.6 | 6.4 | 0.00 | 0.08 | 0.00 | 86 | 1009.4 |
| 20260509050203 | 19 | 252 | 1.6 | 9.7 | 0.00 | 0.08 | 0.00 | 87 | 1009.5 |
| 20260509050015 | 19 | 228 | 0.0 | 9.7 | 0.00 | 0.08 | 0.08 | 87 | 1008.8 |
| 20260509045800 | 19 | 247 | 1.6 | 9.7 | 0.00 | 0.08 | 0.08 | 87 | 1009.5 |
| 20260509045700 | 19 | 232 | 3.2 | 9.7 | 0.00 | 0.08 | 0.08 | 87 | 1009.4 |
| 20260509045601 | 19 | 225 | 1.6 | 9.7 | 0.00 | 0.08 | 0.08 | 87 | 1009.4 |
| 20260509045501 | 19 | 259 | 1.6 | 9.7 | 0.00 | 0.08 | 0.08 | 87 | 1009.4 |
| 20260509045401 | 19 | 238 | 1.6 | 4.8 | 0.00 | 0.08 | 0.08 | 87 | 1009.4 |
| 20260509045301 | 19 | 236 | 1.6 | 4.8 | 0.00 | 0.08 | 0.08 | 87 | 1009.4 |
| 20260509045201 | 19 | 222 | 3.2 | 4.8 | 0.00 | 0.08 | 0.08 | 87 | 1009.4 |
| 20260509045003 | 19 | 237 | 1.6 | 4.8 | 0.00 | 0.08 | 0.08 | 87 | 1009.5 |
| 20260509044901 | 19 | 214 | 1.6 | 4.8 | 0.00 | 0.08 | 0.08 | 87 | 1009.5 |
| 20260509044800 | 19 | 244 | 1.6 | 4.8 | 0.00 | 0.08 | 0.08 | 87 | 1009.5 |
| 20260509044701 | 19 | 236 | 0.0 | 4.8 | 0.00 | 0.08 | 0.08 | 87 | 1009.6 |
| 20260509044601 | 19 | 238 | 0.0 | 3.2 | 0.00 | 0.08 | 0.08 | 87 | 1009.7 |
| 20260509044501 | 18 | 205 | 0.0 | 3.2 | 0.00 | 0.08 | 0.08 | 87 | 1009.6 |
| 20260509044401 | 18 | 205 | 0.0 | 3.2 | 0.00 | 0.08 | 0.08 | 87 | 1009.7 |
| 20260509044301 | 18 | 205 | 0.0 | 3.2 | 0.00 | 0.08 | 0.08 | 87 | 1009.7 |
| 20260509044101 | 18 | 204 | 0.0 | 3.2 | 0.00 | 0.08 | 0.08 | 87 | 1009.8 |
| 20260509044002 | 18 | 204 | 0.0 | 3.2 | 0.00 | 0.08 | 0.08 | 87 | 1009.9 |
| 20260509043800 | 18 | 203 | 0.0 | 3.2 | 0.00 | 0.08 | 0.08 | 87 | 1009.9 |
| 20260509043601 | 18 | 203 | 0.0 | 3.2 | 0.00 | 0.08 | 0.08 | 87 | 1010.0 |
| 20260509043501 | 18 | 203 | 0.0 | 3.2 | 0.00 | 0.08 | 0.08 | 86 | 1010.0 |
| 20260509043401 | 18 | 203 | 0.0 | 3.2 | 0.00 | 0.08 | 0.08 | 86 | 1010.0 |
| 20260509043301 | 18 | 203 | 0.0 | 3.2 | 0.00 | 0.08 | 0.08 | 86 | 1009.9 |
| 20260509043200 | 18 | 203 | 0.0 | 3.2 | 0.00 | 0.08 | 0.08 | 86 | 1009.9 |
| 20260509043102 | 18 | 203 | 0.0 | 3.2 | 0.00 | 0.08 | 0.08 | 86 | 1009.2 |
| 20260509043001 | 18 | 203 | 0.0 | 3.2 | 0.00 | 0.08 | 0.08 | 86 | 1009.8 |
| 20260509042800 | 18 | 203 | 0.0 | 3.2 | 0.00 | 0.08 | 0.08 | 86 | 1009.7 |
| 20260509042701 | 18 | 202 | 0.0 | 3.2 | 0.00 | 0.08 | 0.08 | 86 | 1009.6 |
| 20260509042601 | 18 | 202 | 0.0 | 3.2 | 0.00 | 0.08 | 0.08 | 86 | 1009.5 |
| 20260509042501 | 18 | 202 | 0.0 | 3.2 | 0.00 | 0.08 | 0.08 | 86 | 1009.5 |
| 20260509042401 | 18 | 202 | 0.0 | 3.2 | 0.00 | 0.08 | 0.08 | 86 | 1009.5 |
| 20260509042301 | 18 | 202 | 1.6 | 3.2 | 0.00 | 0.08 | 0.08 | 86 | 1009.5 |
| 20260509042200 | 18 | 202 | 1.6 | 3.2 | 0.00 | 0.08 | 0.08 | 86 | 1009.6 |
| 20260509041902 | 18 | 201 | 1.6 | 3.2 | 0.00 | 0.08 | 0.08 | 86 | 1009.8 |
| 20260509041701 | 18 | 162 | 0.0 | 3.2 | 0.00 | 0.08 | 0.08 | 85 | 1009.8 |
| 20260509041600 | 18 | 162 | 0.0 | 3.2 | 0.00 | 0.08 | 0.08 | 85 | 1009.8 |
| 20260509041502 | 18 | 162 | 0.0 | 0.0 | 0.00 | 0.08 | 0.08 | 85 | 1009.7 |
| 20260509040902 | 19 | 162 | 0.0 | 4.8 | 0.00 | 0.08 | 0.08 | 84 | 1009.6 |
| 20260509040803 | 19 | 162 | 0.0 | 4.8 | 0.00 | 0.08 | 0.08 | 84 | 1009.5 |
| 20260509040700 | 19 | 162 | 0.0 | 4.8 | 0.00 | 0.08 | 0.08 | 85 | 1009.4 |
| 20260509040601 | 19 | 162 | 0.0 | 4.8 | 0.00 | 0.08 | 0.08 | 85 | 1009.3 |
| 20260509040501 | 19 | 162 | 0.0 | 4.8 | 0.00 | 0.08 | 0.08 | 85 | 1009.2 |
| 20260509040401 | 19 | 162 | 0.0 | 4.8 | 0.00 | 0.08 | 0.08 | 85 | 1009.2 |
| 20260509040201 | 19 | 162 | 1.6 | 4.8 | 0.00 | 0.08 | 0.08 | 85 | 1009.2 |
| 20260509040115 | 19 | 162 | 1.6 | 4.8 | 0.00 | 0.08 | 0.08 | 84 | 1008.5 |
| 20260509040101 | 19 | 162 | 1.6 | 4.8 | 0.00 | 0.08 | 0.08 | 84 | 1009.2 |
| 20260509040001 | 19 | 162 | 0.0 | 3.2 | 0.00 | 0.08 | 0.08 | 84 | 1008.4 |
| 20260509035901 | 19 | 162 | 0.0 | 3.2 | 0.00 | 0.08 | 0.08 | 84 | 1009.1 |
| 20260509035801 | 19 | 162 | 0.0 | 3.2 | 0.00 | 0.08 | 0.08 | 84 | 1009.2 |
| 20260509035600 | 19 | 162 | 0.0 | 4.8 | 0.00 | 0.08 | 0.08 | 84 | 1009.2 |
| 20260509035500 | 19 | 162 | 0.0 | 4.8 | 0.00 | 0.08 | 0.08 | 84 | 1009.2 |
| 20260509035301 | 19 | 162 | 1.6 | 4.8 | 0.00 | 0.08 | 0.08 | 84 | 1009.2 |
| 20260509035101 | 19 | 172 | 1.6 | 4.8 | 0.00 | 0.08 | 0.08 | 84 | 1009.0 |
| 20260509035001 | 19 | 172 | 1.6 | 6.4 | 0.00 | 0.08 | 0.08 | 84 | 1009.0 |
| 20260509034901 | 19 | 173 | 3.2 | 6.4 | 0.00 | 0.08 | 0.08 | 84 | 1009.0 |
| 20260509034801 | 19 | 173 | 3.2 | 6.4 | 0.00 | 0.08 | 0.08 | 84 | 1008.9 |
| 20260509034602 | 19 | 178 | 1.6 | 9.7 | 0.00 | 0.08 | 0.08 | 84 | 1009.0 |
| 20260509034501 | 19 | 179 | 1.6 | 9.7 | 0.00 | 0.08 | 0.08 | 84 | 1009.0 |
| 20260509034401 | 19 | 184 | 1.6 | 9.7 | 0.00 | 0.08 | 0.08 | 84 | 1008.9 |
| 20260509034301 | 19 | 186 | 3.2 | 9.7 | 0.00 | 0.08 | 0.08 | 84 | 1008.9 |
| 20260509034000 | 19 | 192 | 3.2 | 9.7 | 0.00 | 0.08 | 0.08 | 84 | 1008.8 |
| 20260509033900 | 19 | 188 | 4.8 | 9.7 | 0.00 | 0.08 | 0.08 | 84 | 1008.9 |
| 20260509033801 | 19 | 174 | 4.8 | 9.7 | 0.00 | 0.08 | 0.08 | 84 | 1009.0 |
| 20260509033601 | 19 | 188 | 4.8 | 9.7 | 0.00 | 0.08 | 0.08 | 84 | 1009.1 |
| 20260509033402 | 19 | 191 | 4.8 | 9.7 | 0.00 | 0.08 | 0.08 | 84 | 1008.9 |
| 20260509033103 | 19 | 203 | 4.8 | 9.7 | 0.00 | 0.08 | 0.08 | 83 | 1007.9 |
| 20260509033001 | 19 | 196 | 4.8 | 9.7 | 0.00 | 0.08 | 0.08 | 83 | 1007.8 |
| 20260509032902 | 19 | 201 | 4.8 | 9.7 | 0.00 | 0.08 | 0.08 | 83 | 1008.5 |
| 20260509032801 | 19 | 198 | 6.4 | 9.7 | 0.00 | 0.08 | 0.08 | 83 | 1008.5 |
| 20260509032701 | 20 | 200 | 6.4 | 9.7 | 0.00 | 0.08 | 0.08 | 83 | 1008.6 |
| 20260509032601 | 20 | 201 | 4.8 | 9.7 | 0.00 | 0.08 | 0.08 | 82 | 1008.6 |
| 20260509032501 | 20 | 192 | 4.8 | 8.0 | 0.00 | 0.08 | 0.08 | 82 | 1008.6 |
| 20260509032301 | 20 | 197 | 4.8 | 8.0 | 0.00 | 0.08 | 0.08 | 82 | 1008.6 |
| 20260509032000 | 20 | 194 | 4.8 | 9.7 | 0.00 | 0.08 | 0.08 | 82 | 1008.4 |
| 20260509031900 | 20 | 194 | 4.8 | 9.7 | 0.00 | 0.08 | 0.08 | 81 | 1008.4 |
| 20260509031800 | 20 | 181 | 4.8 | 9.7 | 0.00 | 0.08 | 0.08 | 81 | 1008.4 |
| 20260509031700 | 20 | 192 | 4.8 | 9.7 | 0.00 | 0.08 | 0.08 | 81 | 1008.4 |
| 20260509031602 | 20 | 192 | 4.8 | 9.7 | 0.00 | 0.08 | 0.08 | 81 | 1008.5 |
| 20260509031400 | 20 | 201 | 3.2 | 6.4 | 0.00 | 0.08 | 0.08 | 81 | 1008.5 |
| 20260509031301 | 20 | 205 | 3.2 | 6.4 | 0.00 | 0.08 | 0.08 | 81 | 1008.6 |
| 20260509031201 | 20 | 204 | 3.2 | 6.4 | 0.00 | 0.08 | 0.08 | 81 | 1008.6 |
| 20260509031101 | 20 | 215 | 3.2 | 6.4 | 0.00 | 0.08 | 0.08 | 81 | 1008.7 |
| 20260509031001 | 20 | 202 | 1.6 | 6.4 | 0.00 | 0.08 | 0.08 | 81 | 1008.6 |
| 20260509030901 | 20 | 187 | 1.6 | 6.4 | 0.00 | 0.08 | 0.08 | 81 | 1008.6 |
| 20260509030801 | 20 | 184 | 1.6 | 6.4 | 0.00 | 0.08 | 0.08 | 81 | 1008.6 |
| 20260509030701 | 20 | 185 | 1.6 | 6.4 | 0.00 | 0.08 | 0.08 | 81 | 1008.6 |
| 20260509030601 | 20 | 184 | 1.6 | 14.5 | 0.00 | 0.08 | 0.08 | 81 | 1008.6 |
| 20260509030500 | 20 | 184 | 3.2 | 14.5 | 0.00 | 0.08 | 0.08 | 81 | 1008.6 |
| 20260509030401 | 20 | 184 | 3.2 | 14.5 | 0.00 | 0.08 | 0.08 | 81 | 1008.6 |
| 20260509030302 | 20 | 180 | 3.2 | 14.5 | 0.00 | 0.08 | 0.08 | 81 | 1008.6 |
| 20260509030110 | 20 | 212 | 1.6 | 14.5 | 0.00 | 0.08 | 0.08 | 81 | 1007.9 |
| 20260509030101 | 20 | 212 | 1.6 | 14.5 | 0.00 | 0.08 | 0.08 | 81 | 1008.6 |
| 20260509030006 | 20 | 184 | 3.2 | 14.5 | 0.00 | 0.08 | 0.08 | 81 | 1007.8 |
| 20260509025901 | 20 | 182 | 4.8 | 14.5 | 0.00 | 0.08 | 0.08 | 81 | 1008.5 |
| 20260509025800 | 20 | 179 | 6.4 | 14.5 | 0.00 | 0.08 | 0.08 | 81 | 1008.4 |
| 20260509025700 | 20 | 200 | 6.4 | 12.9 | 0.00 | 0.08 | 0.08 | 81 | 1008.4 |
| 20260509025502 | 20 | 191 | 6.4 | 12.9 | 0.00 | 0.08 | 0.08 | 81 | 1008.4 |
| 20260509025403 | 20 | 200 | 6.4 | 12.9 | 0.00 | 0.08 | 0.08 | 81 | 1008.5 |
| 20260509025301 | 20 | 196 | 6.4 | 12.9 | 0.00 | 0.08 | 0.08 | 81 | 1008.5 |
| 20260509025101 | 20 | 179 | 8.0 | 11.3 | 0.00 | 0.08 | 0.08 | 81 | 1008.6 |
| 20260509025002 | 20 | 155 | 8.0 | 11.3 | 0.00 | 0.08 | 0.08 | 81 | 1008.6 |
| 20260509024801 | 20 | 163 | 6.4 | 11.3 | 0.00 | 0.08 | 0.08 | 81 | 1008.8 |
| 20260509024601 | 20 | 171 | 6.4 | 9.7 | 0.00 | 0.08 | 0.08 | 81 | 1008.1 |
| 20260509024401 | 20 | 155 | 6.4 | 8.0 | 0.00 | 0.08 | 0.08 | 81 | 1008.9 |
| 20260509024301 | 20 | 158 | 6.4 | 9.7 | 0.00 | 0.08 | 0.08 | 81 | 1009.0 |
| 20260509024201 | 20 | 157 | 4.8 | 8.0 | 0.00 | 0.08 | 0.08 | 81 | 1009.0 |
| 20260509024101 | 20 | 143 | 4.8 | 6.4 | 0.00 | 0.08 | 0.08 | 81 | 1009.0 |
| 20260509024001 | 20 | 138 | 3.2 | 4.8 | 0.00 | 0.08 | 0.08 | 81 | 1009.0 |
| 20260509023901 | 20 | 136 | 3.2 | 4.8 | 0.00 | 0.08 | 0.08 | 81 | 1009.1 |
| 20260509023801 | 20 | 136 | 3.2 | 4.8 | 0.00 | 0.08 | 0.08 | 81 | 1009.1 |
| 20260509023501 | 20 | 135 | 4.8 | 4.8 | 0.00 | 0.08 | 0.08 | 81 | 1009.1 |
| 20260509023402 | 20 | 134 | 3.2 | 4.8 | 0.00 | 0.08 | 0.08 | 81 | 1009.2 |
| 20260509023301 | 20 | 134 | 3.2 | 4.8 | 0.00 | 0.08 | 0.08 | 81 | 1009.3 |
| 20260509023201 | 20 | 134 | 3.2 | 3.2 | 0.00 | 0.08 | 0.08 | 81 | 1009.2 |
| 20260509023100 | 20 | 134 | 1.6 | 3.2 | 0.00 | 0.08 | 0.08 | 81 | 1008.6 |
| 20260509023000 | 20 | 134 | 1.6 | 3.2 | 0.00 | 0.08 | 0.08 | 81 | 1009.4 |
| 20260509022900 | 20 | 134 | 0.0 | 3.2 | 0.00 | 0.08 | 0.08 | 81 | 1009.4 |
| 20260509022801 | 20 | 134 | 0.0 | 3.2 | 0.00 | 0.08 | 0.08 | 81 | 1009.4 |
| 20260509022701 | 20 | 134 | 0.0 | 3.2 | 0.00 | 0.08 | 0.08 | 81 | 1009.4 |
| 20260509022601 | 20 | 134 | 0.0 | 3.2 | 0.00 | 0.08 | 0.08 | 81 | 1009.4 |
| 20260509022501 | 20 | 134 | 0.0 | 3.2 | 0.00 | 0.08 | 0.08 | 81 | 1009.4 |
| 20260509022401 | 20 | 134 | 0.0 | 3.2 | 0.00 | 0.08 | 0.08 | 81 | 1009.3 |
| 20260509022301 | 20 | 134 | 0.0 | 3.2 | 0.00 | 0.08 | 0.08 | 81 | 1009.3 |
| 20260509022200 | 20 | 134 | 0.0 | 3.2 | 0.00 | 0.08 | 0.08 | 81 | 1009.2 |
| 20260509022100 | 20 | 134 | 0.0 | 3.2 | 0.00 | 0.08 | 0.08 | 81 | 1009.1 |
| 20260509022000 | 20 | 134 | 0.0 | 3.2 | 0.00 | 0.08 | 0.08 | 80 | 1009.2 |
| 20260509021900 | 20 | 134 | 0.0 | 3.2 | 0.00 | 0.08 | 0.08 | 80 | 1009.0 |
| 20260509021800 | 20 | 134 | 0.0 | 3.2 | 0.00 | 0.08 | 0.08 | 80 | 1009.1 |
| 20260509021700 | 20 | 134 | 0.0 | 3.2 | 0.00 | 0.08 | 0.08 | 80 | 1009.0 |
| 20260509021602 | 20 | 134 | 0.0 | 3.2 | 0.00 | 0.08 | 0.08 | 80 | 1008.2 |
| 20260509021501 | 20 | 134 | 1.6 | 3.2 | 0.00 | 0.08 | 0.08 | 80 | 1008.9 |
| 20260509021400 | 20 | 134 | 1.6 | 3.2 | 0.00 | 0.08 | 0.08 | 80 | 1008.8 |
| 20260509021200 | 20 | 134 | 0.0 | 4.8 | 0.00 | 0.08 | 0.08 | 80 | 1008.8 |
| 20260509021103 | 20 | 134 | 0.0 | 4.8 | 0.00 | 0.08 | 0.08 | 80 | 1008.7 |
| 20260509021002 | 20 | 134 | 1.6 | 4.8 | 0.00 | 0.08 | 0.08 | 80 | 1008.7 |
| 20260509020800 | 20 | 134 | 0.0 | 6.4 | 0.00 | 0.08 | 0.08 | 80 | 1008.7 |
| 20260509020401 | 20 | 134 | 3.2 | 6.4 | 0.00 | 0.08 | 0.08 | 80 | 1008.5 |
| 20260509020301 | 21 | 134 | 3.2 | 6.4 | 0.00 | 0.08 | 0.08 | 80 | 1008.4 |
| 20260509020002 | 21 | 139 | 3.2 | 6.4 | 0.00 | 0.08 | 0.08 | 80 | 1008.3 |
| 20260509015901 | 21 | 141 | 3.2 | 6.4 | 0.00 | 0.08 | 0.08 | 80 | 1008.3 |
| 20260509015802 | 21 | 143 | 1.6 | 4.8 | 0.00 | 0.08 | 0.08 | 80 | 1008.3 |
| 20260509015700 | 21 | 134 | 3.2 | 4.8 | 0.00 | 0.08 | 0.08 | 80 | 1008.3 |
| 20260509015500 | 21 | 129 | 3.2 | 4.8 | 0.00 | 0.08 | 0.08 | 80 | 1008.3 |
| 20260509015401 | 21 | 132 | 1.6 | 4.8 | 0.00 | 0.08 | 0.08 | 80 | 1008.3 |
| 20260509015301 | 21 | 132 | 1.6 | 4.8 | 0.00 | 0.08 | 0.08 | 80 | 1008.2 |
| 20260509015201 | 21 | 139 | 1.6 | 6.4 | 0.00 | 0.08 | 0.08 | 80 | 1008.1 |
| 20260509015101 | 21 | 140 | 1.6 | 6.4 | 0.00 | 0.08 | 0.08 | 80 | 1008.1 |
| 20260509015001 | 21 | 140 | 1.6 | 6.4 | 0.00 | 0.08 | 0.08 | 80 | 1008.0 |
| 20260509014901 | 21 | 140 | 3.2 | 6.4 | 0.00 | 0.08 | 0.08 | 80 | 1008.0 |
| 20260509014801 | 21 | 140 | 3.2 | 6.4 | 0.00 | 0.08 | 0.08 | 80 | 1007.9 |
| 20260509014703 | 21 | 142 | 3.2 | 6.4 | 0.00 | 0.08 | 0.08 | 79 | 1007.9 |
| 20260509014601 | 21 | 139 | 3.2 | 6.4 | 0.00 | 0.08 | 0.08 | 79 | 1007.9 |
| 20260509014502 | 21 | 140 | 3.2 | 6.4 | 0.00 | 0.08 | 0.08 | 79 | 1007.9 |
| 20260509014400 | 21 | 140 | 3.2 | 6.4 | 0.00 | 0.08 | 0.08 | 79 | 1007.9 |
| 20260509014302 | 21 | 150 | 1.6 | 6.4 | 0.00 | 0.08 | 0.08 | 79 | 1008.0 |
| 20260509014201 | 21 | 149 | 1.6 | 6.4 | 0.00 | 0.08 | 0.08 | 79 | 1007.9 |
| 20260509014101 | 21 | 156 | 1.6 | 6.4 | 0.00 | 0.08 | 0.08 | 79 | 1007.9 |
| 20260509014000 | 21 | 160 | 1.6 | 9.7 | 0.00 | 0.08 | 0.08 | 79 | 1007.9 |
| 20260509013902 | 21 | 158 | 1.6 | 9.7 | 0.00 | 0.08 | 0.08 | 78 | 1007.8 |
| 20260509013800 | 21 | 136 | 3.2 | 9.7 | 0.00 | 0.08 | 0.08 | 78 | 1007.8 |
| 20260509013701 | 21 | 163 | 3.2 | 8.0 | 0.00 | 0.08 | 0.08 | 78 | 1007.7 |
| 20260509013602 | 21 | 153 | 3.2 | 8.0 | 0.00 | 0.08 | 0.08 | 78 | 1007.7 |
| 20260509013401 | 21 | 169 | 4.8 | 14.5 | 0.00 | 0.08 | 0.08 | 78 | 1007.5 |
| 20260509013301 | 21 | 152 | 4.8 | 14.5 | 0.00 | 0.08 | 0.08 | 78 | 1007.5 |
| 20260509013201 | 21 | 153 | 4.8 | 14.5 | 0.00 | 0.08 | 0.08 | 78 | 1007.5 |
| 20260509013116 | 21 | 147 | 3.2 | 14.5 | 0.00 | 0.08 | 0.08 | 78 | 1006.6 |
| 20260509013101 | 21 | 147 | 4.8 | 14.5 | 0.00 | 0.08 | 0.08 | 78 | 1007.4 |
| 20260509013001 | 21 | 162 | 4.8 | 14.5 | 0.00 | 0.08 | 0.08 | 78 | 1007.3 |
| 20260509012901 | 21 | 163 | 4.8 | 14.5 | 0.00 | 0.08 | 0.08 | 78 | 1007.3 |
| 20260509012801 | 21 | 162 | 6.4 | 14.5 | 0.00 | 0.08 | 0.08 | 78 | 1007.4 |
| 20260509012701 | 21 | 177 | 8.0 | 14.5 | 0.00 | 0.08 | 0.08 | 77 | 1007.4 |
| 20260509012501 | 21 | 156 | 4.8 | 8.0 | 0.00 | 0.08 | 0.08 | 77 | 1007.5 |
| 20260509012401 | 21 | 173 | 4.8 | 8.0 | 0.00 | 0.08 | 0.08 | 77 | 1007.5 |
| 20260509012302 | 21 | 169 | 4.8 | 8.0 | 0.00 | 0.08 | 0.08 | 77 | 1007.5 |
| 20260509012101 | 21 | 164 | 6.4 | 8.0 | 0.00 | 0.08 | 0.08 | 77 | 1007.6 |
| 20260509011902 | 21 | 165 | 4.8 | 8.0 | 0.00 | 0.08 | 0.08 | 76 | 1007.5 |
| 20260509011801 | 21 | 167 | 3.2 | 8.0 | 0.00 | 0.08 | 0.08 | 76 | 1007.5 |
| 20260509011702 | 21 | 165 | 3.2 | 8.0 | 0.00 | 0.08 | 0.08 | 76 | 1007.5 |
| 20260509011608 | 22 | 184 | 3.2 | 8.0 | 0.00 | 0.08 | 0.08 | 76 | 1006.7 |
| 20260509011601 | 22 | 184 | 3.2 | 8.0 | 0.00 | 0.08 | 0.08 | 76 | 1007.4 |
| 20260509011501 | 22 | 178 | 3.2 | 8.0 | 0.00 | 0.08 | 0.08 | 76 | 1007.4 |
| 20260509011401 | 22 | 190 | 3.2 | 8.0 | 0.00 | 0.08 | 0.08 | 76 | 1007.4 |
| 20260509011201 | 22 | 178 | 3.2 | 11.3 | 0.00 | 0.08 | 0.08 | 75 | 1007.4 |
| 20260509011101 | 22 | 159 | 3.2 | 11.3 | 0.00 | 0.08 | 0.08 | 76 | 1007.4 |
| 20260509010902 | 22 | 176 | 4.8 | 11.3 | 0.00 | 0.08 | 0.08 | 75 | 1007.4 |
| 20260509010801 | 22 | 169 | 4.8 | 11.3 | 0.00 | 0.08 | 0.08 | 75 | 1007.4 |
| 20260509010701 | 22 | 187 | 4.8 | 12.9 | 0.00 | 0.08 | 0.08 | 75 | 1007.4 |
| 20260509010602 | 22 | 157 | 3.2 | 12.9 | 0.00 | 0.08 | 0.08 | 75 | 1007.4 |
| 20260509010501 | 22 | 185 | 4.8 | 12.9 | 0.00 | 0.08 | 0.08 | 75 | 1007.4 |
| 20260509010402 | 22 | 180 | 6.4 | 12.9 | 0.00 | 0.08 | 0.08 | 75 | 1007.4 |
| 20260509010100 | 22 | 172 | 4.8 | 16.1 | 0.00 | 0.08 | 0.08 | 74 | 1006.6 |
| 20260509010006 | 22 | 188 | 6.4 | 16.1 | 0.00 | 0.08 | 0.08 | 74 | 1006.6 |
| 20260509010003 | 22 | 188 | 6.4 | 16.1 | 0.00 | 0.08 | 0.08 | 74 | 1007.3 |
| 20260509005901 | 22 | 194 | 6.4 | 16.1 | 0.00 | 0.08 | 0.08 | 74 | 1007.3 |
| 20260509005801 | 22 | 186 | 4.8 | 16.1 | 0.00 | 0.08 | 0.08 | 74 | 1007.3 |
| 20260509005701 | 22 | 181 | 4.8 | 16.1 | 0.00 | 0.08 | 0.08 | 74 | 1007.2 |
| 20260509005601 | 22 | 175 | 4.8 | 16.1 | 0.00 | 0.08 | 0.08 | 74 | 1007.3 |
| 20260509005502 | 22 | 175 | 4.8 | 16.1 | 0.00 | 0.08 | 0.08 | 74 | 1007.3 |
| 20260509005401 | 22 | 176 | 6.4 | 16.1 | 0.00 | 0.08 | 0.08 | 74 | 1007.3 |
| 20260509005301 | 22 | 180 | 8.0 | 12.9 | 0.00 | 0.08 | 0.08 | 74 | 1007.4 |
| 20260509005202 | 22 | 192 | 8.0 | 12.9 | 0.00 | 0.08 | 0.08 | 74 | 1007.3 |
| 20260509005101 | 22 | 151 | 6.4 | 14.5 | 0.00 | 0.08 | 0.08 | 74 | 1007.3 |
| 20260509005001 | 22 | 199 | 6.4 | 14.5 | 0.00 | 0.08 | 0.08 | 74 | 1007.3 |
| 20260509004902 | 22 | 190 | 8.0 | 14.5 | 0.00 | 0.08 | 0.08 | 73 | 1007.4 |
| 20260509004801 | 22 | 200 | 8.0 | 14.5 | 0.00 | 0.08 | 0.08 | 74 | 1007.3 |
| 20260509004701 | 22 | 150 | 4.8 | 14.5 | 0.00 | 0.08 | 0.08 | 74 | 1007.4 |
| 20260509004607 | 22 | 170 | 4.8 | 14.5 | 0.00 | 0.08 | 0.08 | 74 | 1006.6 |
| 20260509004601 | 22 | 170 | 4.8 | 14.5 | 0.00 | 0.08 | 0.08 | 74 | 1007.4 |
| 20260509004500 | 22 | 182 | 6.4 | 14.5 | 0.00 | 0.08 | 0.08 | 74 | 1007.4 |
| 20260509004401 | 22 | 165 | 6.4 | 14.5 | 0.00 | 0.08 | 0.08 | 74 | 1007.4 |
| 20260509004301 | 22 | 191 | 4.8 | 12.9 | 0.00 | 0.08 | 0.08 | 74 | 1007.4 |
| 20260509004201 | 22 | 151 | 6.4 | 12.9 | 0.00 | 0.08 | 0.08 | 74 | 1007.4 |
| 20260509004102 | 22 | 161 | 6.4 | 12.9 | 0.00 | 0.08 | 0.08 | 74 | 1007.4 |
| 20260509004001 | 22 | 194 | 6.4 | 14.5 | 0.00 | 0.08 | 0.08 | 74 | 1007.4 |
| 20260509003701 | 22 | 172 | 6.4 | 14.5 | 0.00 | 0.08 | 0.08 | 74 | 1007.5 |
| 20260509003601 | 23 | 183 | 4.8 | 14.5 | 0.00 | 0.08 | 0.08 | 74 | 1007.4 |
| 20260509003401 | 23 | 157 | 6.4 | 14.5 | 0.00 | 0.08 | 0.08 | 74 | 1007.4 |
| 20260509003301 | 23 | 182 | 8.0 | 14.5 | 0.00 | 0.08 | 0.08 | 73 | 1007.5 |
| 20260509003201 | 23 | 200 | 8.0 | 14.5 | 0.00 | 0.08 | 0.08 | 73 | 1007.4 |
| 20260509003134 | 23 | 159 | 6.4 | 14.5 | 0.00 | 0.08 | 0.08 | 73 | 1006.7 |
| 20260509003101 | 23 | 159 | 6.4 | 14.5 | 0.00 | 0.08 | 0.08 | 73 | 1007.4 |
| 20260509003001 | 23 | 171 | 6.4 | 17.7 | 0.00 | 0.08 | 0.08 | 73 | 1007.5 |
| 20260509002901 | 23 | 169 | 6.4 | 17.7 | 0.00 | 0.08 | 0.08 | 73 | 1007.4 |
| 20260509002801 | 23 | 175 | 4.8 | 17.7 | 0.00 | 0.08 | 0.08 | 73 | 1007.4 |
| 20260509002700 | 23 | 175 | 6.4 | 17.7 | 0.00 | 0.08 | 0.08 | 73 | 1007.4 |
| 20260509002600 | 23 | 173 | 8.0 | 17.7 | 0.00 | 0.08 | 0.08 | 73 | 1007.4 |
| 20260509002501 | 23 | 168 | 9.7 | 17.7 | 0.00 | 0.08 | 0.08 | 73 | 1007.4 |
| 20260509002401 | 23 | 186 | 9.7 | 17.7 | 0.00 | 0.08 | 0.08 | 72 | 1007.3 |
| 20260509002301 | 23 | 158 | 8.0 | 17.7 | 0.00 | 0.08 | 0.08 | 73 | 1007.3 |
| 20260509002201 | 23 | 165 | 8.0 | 17.7 | 0.00 | 0.08 | 0.08 | 72 | 1007.3 |
| 20260509002101 | 23 | 171 | 6.4 | 16.1 | 0.00 | 0.08 | 0.08 | 73 | 1007.3 |
| 20260509002001 | 23 | 169 | 6.4 | 16.1 | 0.00 | 0.08 | 0.08 | 72 | 1007.2 |
| 20260509001801 | 23 | 180 | 8.0 | 16.1 | 0.00 | 0.08 | 0.08 | 72 | 1007.2 |
| 20260509001701 | 23 | 176 | 8.0 | 16.1 | 0.00 | 0.08 | 0.08 | 72 | 1007.2 |
| 20260509001606 | 23 | 182 | 8.0 | 16.1 | 0.00 | 0.08 | 0.08 | 71 | 1006.5 |
| 20260509001601 | 23 | 182 | 9.7 | 16.1 | 0.00 | 0.08 | 0.08 | 71 | 1007.2 |
| 20260509001500 | 23 | 194 | 11.3 | 16.1 | 0.00 | 0.08 | 0.08 | 71 | 1007.1 |
| 20260509001401 | 23 | 169 | 9.7 | 16.1 | 0.00 | 0.08 | 0.08 | 71 | 1007.1 |
| 20260509001301 | 23 | 184 | 9.7 | 16.1 | 0.00 | 0.08 | 0.08 | 72 | 1007.0 |
| 20260509001201 | 23 | 178 | 9.7 | 16.1 | 0.00 | 0.08 | 0.08 | 72 | 1007.0 |
| 20260509001101 | 23 | 170 | 9.7 | 16.1 | 0.00 | 0.08 | 0.08 | 71 | 1006.9 |
| 20260509001001 | 23 | 184 | 8.0 | 16.1 | 0.00 | 0.08 | 0.08 | 71 | 1007.0 |
| 20260509000902 | 23 | 169 | 6.4 | 16.1 | 0.00 | 0.08 | 0.08 | 71 | 1007.0 |
| 20260509000801 | 23 | 164 | 8.0 | 16.1 | 0.00 | 0.08 | 0.08 | 71 | 1007.0 |
| 20260509000701 | 23 | 192 | 9.7 | 16.1 | 0.00 | 0.08 | 0.08 | 71 | 1007.0 |
| 20260509000600 | 23 | 188 | 9.7 | 16.1 | 0.00 | 0.08 | 0.08 | 71 | 1007.0 |
| 20260509000501 | 23 | 150 | 9.7 | 16.1 | 0.00 | 0.08 | 0.08 | 70 | 1006.9 |
| 20260509000403 | 23 | 182 | 6.4 | 14.5 | 0.00 | 0.08 | 0.08 | 70 | 1006.9 |
| 20260509000303 | 23 | 182 | 6.4 | 19.3 | 0.00 | 0.08 | 0.08 | 70 | 1007.0 |
| 20260509000200 | 23 | 180 | 6.4 | 19.3 | 0.00 | 0.08 | 0.08 | 70 | 1006.9 |
| 20260509000113 | 23 | 175 | 8.0 | 19.3 | 0.00 | 0.08 | 0.08 | 70 | 1006.3 |
| 20260509000002 | 23 | 170 | 6.4 | 19.3 | 0.00 | 0.08 | 0.08 | 70 | 1006.2 |
| 20260508235900 | 23 | 185 | 6.4 | 19.3 | 0.00 | 0.08 | 0.08 | 70 | 1007.0 |
| 20260508235800 | 24 | 159 | 6.4 | 19.3 | 0.00 | 0.08 | 0.08 | 70 | 1006.9 |
| 20260508235659 | 24 | 184 | 8.0 | 19.3 | 0.00 | 0.08 | 0.08 | 69 | 1006.9 |
| 20260508235601 | 24 | 175 | 8.0 | 19.3 | 0.00 | 0.08 | 0.08 | 69 | 1006.9 |
| 20260508235500 | 24 | 184 | 11.3 | 19.3 | 0.00 | 0.08 | 0.08 | 68 | 1007.0 |
| 20260508235259 | 24 | 179 | 11.3 | 19.3 | 0.00 | 0.08 | 0.08 | 68 | 1007.0 |
| 20260508235200 | 24 | 192 | 11.3 | 19.3 | 0.00 | 0.08 | 0.08 | 68 | 1006.9 |
| 20260508235100 | 24 | 140 | 11.3 | 19.3 | 0.00 | 0.08 | 0.08 | 68 | 1006.9 |
| 20260508235000 | 24 | 173 | 9.7 | 17.7 | 0.00 | 0.08 | 0.08 | 68 | 1006.8 |
| 20260508234900 | 24 | 182 | 9.7 | 17.7 | 0.00 | 0.08 | 0.08 | 68 | 1006.9 |
| 20260508234800 | 24 | 173 | 8.0 | 16.1 | 0.00 | 0.08 | 0.08 | 67 | 1006.9 |
| 20260508234700 | 24 | 169 | 8.0 | 16.1 | 0.00 | 0.08 | 0.08 | 68 | 1006.9 |
| 20260508234600 | 24 | 143 | 9.7 | 16.1 | 0.00 | 0.08 | 0.08 | 68 | 1006.9 |
| 20260508234559 | 24 | 143 | 8.0 | 16.1 | 0.00 | 0.08 | 0.08 | 68 | 1006.2 |
| 20260508234501 | 24 | 208 | 8.0 | 16.1 | 0.00 | 0.08 | 0.08 | 67 | 1006.2 |
| 20260508234400 | 24 | 177 | 9.7 | 16.1 | 0.00 | 0.08 | 0.08 | 67 | 1006.9 |
| 20260508234259 | 24 | 182 | 9.7 | 16.1 | 0.00 | 0.08 | 0.08 | 67 | 1006.9 |
| 20260508234200 | 25 | 159 | 9.7 | 19.3 | 0.00 | 0.08 | 0.08 | 67 | 1006.8 |
| 20260508234101 | 25 | 192 | 11.3 | 19.3 | 0.00 | 0.08 | 0.08 | 67 | 1006.8 |
| 20260508233659 | 25 | 180 | 8.0 | 19.3 | 0.00 | 0.08 | 0.08 | 67 | 1006.9 |
| 20260508233559 | 25 | 198 | 8.0 | 19.3 | 0.00 | 0.08 | 0.08 | 66 | 1006.9 |
| 20260508233500 | 25 | 184 | 9.7 | 19.3 | 0.00 | 0.08 | 0.08 | 66 | 1006.9 |
| 20260508233359 | 25 | 198 | 8.0 | 19.3 | 0.00 | 0.08 | 0.08 | 66 | 1006.9 |
| 20260508233300 | 25 | 146 | 8.0 | 19.3 | 0.00 | 0.08 | 0.08 | 66 | 1006.9 |
| 20260508233200 | 25 | 169 | 9.7 | 19.3 | 0.00 | 0.08 | 0.08 | 67 | 1007.0 |
| 20260508233100 | 25 | 163 | 9.7 | 19.3 | 0.00 | 0.08 | 0.08 | 67 | 1007.0 |
| 20260508233059 | 25 | 163 | 8.0 | 19.3 | 0.00 | 0.08 | 0.08 | 67 | 1006.3 |
| 20260508233000 | 25 | 159 | 9.7 | 19.3 | 0.00 | 0.08 | 0.08 | 67 | 1006.9 |
| 20260508232900 | 25 | 174 | 8.0 | 16.1 | 0.00 | 0.08 | 0.08 | 66 | 1007.0 |
| 20260508232800 | 25 | 179 | 8.0 | 16.1 | 0.00 | 0.08 | 0.08 | 66 | 1007.0 |
| 20260508232700 | 25 | 161 | 8.0 | 14.5 | 0.00 | 0.08 | 0.08 | 66 | 1006.9 |
| 20260508232459 | 25 | 184 | 4.8 | 12.9 | 0.00 | 0.08 | 0.08 | 67 | 1007.0 |
| 20260508232400 | 25 | 183 | 8.0 | 12.9 | 0.00 | 0.08 | 0.08 | 67 | 1007.0 |
| 20260508232300 | 25 | 178 | 8.0 | 12.9 | 0.00 | 0.08 | 0.08 | 66 | 1007.0 |
| 20260508232159 | 25 | 200 | 8.0 | 12.9 | 0.00 | 0.08 | 0.08 | 66 | 1007.0 |
| 20260508232100 | 25 | 194 | 9.7 | 12.9 | 0.00 | 0.08 | 0.08 | 66 | 1007.0 |
| 20260508232000 | 25 | 161 | 9.7 | 16.1 | 0.00 | 0.08 | 0.08 | 65 | 1007.1 |
| 20260508231859 | 25 | 163 | 9.7 | 16.1 | 0.00 | 0.08 | 0.08 | 66 | 1007.1 |
| 20260508231801 | 25 | 150 | 9.7 | 16.1 | 0.00 | 0.08 | 0.08 | 66 | 1007.1 |
| 20260508231600 | 25 | 178 | 8.0 | 16.1 | 0.00 | 0.08 | 0.08 | 66 | 1006.4 |
| 20260508231500 | 25 | 157 | 8.0 | 16.1 | 0.00 | 0.08 | 0.08 | 66 | 1007.2 |
| 20260508231400 | 25 | 173 | 8.0 | 16.1 | 0.00 | 0.08 | 0.08 | 66 | 1007.2 |
| 20260508231302 | 25 | 175 | 8.0 | 16.1 | 0.00 | 0.08 | 0.08 | 65 | 1007.2 |
| 20260508231200 | 25 | 181 | 8.0 | 16.1 | 0.00 | 0.08 | 0.08 | 65 | 1007.2 |
| 20260508231100 | 25 | 183 | 6.4 | 14.5 | 0.00 | 0.08 | 0.08 | 65 | 1007.2 |
| 20260508231000 | 25 | 201 | 9.7 | 17.7 | 0.00 | 0.08 | 0.08 | 65 | 1007.1 |
| 20260508230759 | 25 | 177 | 8.0 | 17.7 | 0.00 | 0.08 | 0.08 | 65 | 1007.2 |
| 20260508230659 | 25 | 183 | 8.0 | 17.7 | 0.00 | 0.08 | 0.08 | 66 | 1007.2 |
| 20260508230559 | 25 | 190 | 9.7 | 17.7 | 0.00 | 0.08 | 0.08 | 65 | 1007.2 |
| 20260508230459 | 25 | 174 | 9.7 | 17.7 | 0.00 | 0.08 | 0.08 | 65 | 1007.2 |
| 20260508230359 | 25 | 169 | 11.3 | 17.7 | 0.00 | 0.08 | 0.08 | 65 | 1007.2 |
| 20260508230300 | 25 | 175 | 9.7 | 19.3 | 0.00 | 0.08 | 0.08 | 65 | 1007.3 |
| 20260508230200 | 25 | 180 | 11.3 | 19.3 | 0.00 | 0.08 | 0.08 | 65 | 1007.3 |
| 20260508230100 | 25 | 157 | 8.0 | 19.3 | 0.00 | 0.08 | 0.08 | 65 | 1007.3 |
| 20260508230002 | 25 | 147 | 8.0 | 19.3 | 0.00 | 0.08 | 0.08 | 65 | 1007.2 |
| 20260508225900 | 25 | 168 | 9.7 | 19.3 | 0.00 | 0.08 | 0.08 | 65 | 1007.3 |
| 20260508225600 | 25 | 152 | 12.9 | 19.3 | 0.00 | 0.08 | 0.08 | 65 | 1007.3 |
| 20260508225500 | 25 | 130 | 12.9 | 19.3 | 0.00 | 0.08 | 0.08 | 64 | 1007.3 |
| 20260508225359 | 25 | 160 | 11.3 | 19.3 | 0.00 | 0.08 | 0.08 | 64 | 1007.2 |
| 20260508225300 | 25 | 142 | 9.7 | 16.1 | 0.00 | 0.08 | 0.08 | 64 | 1007.3 |
| 20260508225200 | 25 | 175 | 8.0 | 16.1 | 0.00 | 0.08 | 0.08 | 64 | 1007.3 |
| 20260508225000 | 25 | 178 | 11.3 | 19.3 | 0.00 | 0.08 | 0.08 | 64 | 1007.3 |
| 20260508224759 | 25 | 143 | 9.7 | 17.7 | 0.00 | 0.08 | 0.08 | 65 | 1007.3 |
| 20260508224701 | 25 | 189 | 9.7 | 17.7 | 0.00 | 0.08 | 0.08 | 65 | 1007.3 |
| 20260508224607 | 25 | 182 | 9.7 | 17.7 | 0.00 | 0.08 | 0.08 | 64 | 1006.5 |
| 20260508224600 | 25 | 182 | 11.3 | 17.7 | 0.00 | 0.08 | 0.08 | 64 | 1007.2 |
| 20260508224500 | 25 | 187 | 11.3 | 17.7 | 0.00 | 0.08 | 0.08 | 63 | 1007.3 |
| 20260508224400 | 25 | 184 | 12.9 | 17.7 | 0.00 | 0.08 | 0.08 | 63 | 1007.2 |
| 20260508224300 | 25 | 178 | 12.9 | 17.7 | 0.00 | 0.08 | 0.08 | 63 | 1007.3 |
| 20260508224200 | 25 | 180 | 14.5 | 17.7 | 0.00 | 0.08 | 0.08 | 64 | 1007.2 |
| 20260508224100 | 25 | 184 | 12.9 | 16.1 | 0.00 | 0.08 | 0.08 | 65 | 1007.2 |
| 20260508223959 | 25 | 182 | 11.3 | 16.1 | 0.00 | 0.08 | 0.08 | 65 | 1007.2 |
| 20260508223900 | 25 | 144 | 9.7 | 17.7 | 0.00 | 0.08 | 0.08 | 64 | 1007.2 |
| 20260508223800 | 25 | 189 | 11.3 | 19.3 | 0.00 | 0.08 | 0.08 | 63 | 1007.2 |
| 20260508223701 | 26 | 161 | 11.3 | 19.3 | 0.00 | 0.08 | 0.08 | 63 | 1007.3 |
| 20260508223600 | 26 | 188 | 11.3 | 19.3 | 0.00 | 0.08 | 0.08 | 63 | 1007.2 |
| 20260508223500 | 26 | 198 | 9.7 | 19.3 | 0.00 | 0.08 | 0.08 | 64 | 1007.2 |
| 20260508223400 | 26 | 154 | 8.0 | 19.3 | 0.00 | 0.08 | 0.08 | 64 | 1007.3 |
| 20260508223259 | 26 | 178 | 8.0 | 19.3 | 0.00 | 0.08 | 0.08 | 64 | 1007.3 |
| 20260508223100 | 26 | 175 | 12.9 | 19.3 | 0.00 | 0.08 | 0.08 | 63 | 1007.3 |
| 20260508223059 | 26 | 175 | 11.3 | 19.3 | 0.00 | 0.08 | 0.08 | 63 | 1006.6 |
| 20260508223000 | 26 | 161 | 12.9 | 19.3 | 0.00 | 0.08 | 0.08 | 64 | 1007.3 |
| 20260508222900 | 26 | 191 | 12.9 | 17.7 | 0.00 | 0.08 | 0.08 | 64 | 1007.3 |
| 20260508222800 | 26 | 155 | 12.9 | 17.7 | 0.00 | 0.08 | 0.08 | 63 | 1007.3 |
| 20260508222700 | 26 | 161 | 11.3 | 16.1 | 0.00 | 0.08 | 0.08 | 63 | 1007.2 |
| 20260508222600 | 26 | 158 | 9.7 | 16.1 | 0.00 | 0.08 | 0.08 | 64 | 1007.2 |
| 20260508222500 | 26 | 167 | 9.7 | 16.1 | 0.00 | 0.08 | 0.08 | 64 | 1007.2 |
| 20260508222400 | 26 | 173 | 11.3 | 19.3 | 0.00 | 0.08 | 0.08 | 64 | 1007.2 |
| 20260508222300 | 26 | 152 | 11.3 | 19.3 | 0.00 | 0.08 | 0.08 | 64 | 1007.3 |
| 20260508222201 | 26 | 194 | 11.3 | 19.3 | 0.00 | 0.08 | 0.08 | 64 | 1007.2 |
| 20260508221959 | 26 | 128 | 12.9 | 17.7 | 0.00 | 0.08 | 0.08 | 64 | 1007.2 |
| 20260508221859 | 26 | 171 | 12.9 | 17.7 | 0.00 | 0.08 | 0.08 | 64 | 1007.2 |
| 20260508221701 | 26 | 152 | 11.3 | 17.7 | 0.00 | 0.08 | 0.08 | 64 | 1007.2 |
| 20260508221600 | 26 | 136 | 12.9 | 17.7 | 0.00 | 0.08 | 0.08 | 63 | 1006.6 |
| 20260508221459 | 26 | 145 | 11.3 | 17.7 | 0.00 | 0.08 | 0.08 | 64 | 1007.2 |
| 20260508221400 | 26 | 160 | 8.0 | 17.7 | 0.00 | 0.08 | 0.08 | 64 | 1007.3 |
| 20260508221300 | 26 | 205 | 8.0 | 19.3 | 0.00 | 0.08 | 0.08 | 64 | 1007.3 |
| 20260508221200 | 26 | 150 | 8.0 | 19.3 | 0.00 | 0.08 | 0.08 | 63 | 1007.1 |
| 20260508221100 | 26 | 184 | 9.7 | 19.3 | 0.00 | 0.08 | 0.08 | 63 | 1007.2 |
| 20260508221000 | 26 | 196 | 9.7 | 19.3 | 0.00 | 0.08 | 0.08 | 64 | 1007.2 |
| 20260508220901 | 26 | 192 | 8.0 | 19.3 | 0.00 | 0.08 | 0.08 | 64 | 1007.1 |
| 20260508220700 | 26 | 205 | 9.7 | 19.3 | 0.00 | 0.08 | 0.08 | 62 | 1007.1 |
| 20260508220400 | 26 | 190 | 9.7 | 16.1 | 0.00 | 0.08 | 0.08 | 63 | 1007.2 |
| 20260508220100 | 26 | 183 | 9.7 | 22.5 | 0.00 | 0.08 | 0.08 | 62 | 1006.5 |
| 20260508220000 | 26 | 198 | 9.7 | 22.5 | 0.00 | 0.08 | 0.08 | 62 | 1007.2 |
| 20260508215900 | 26 | 176 | 9.7 | 22.5 | 0.00 | 0.08 | 0.08 | 62 | 1007.2 |
| 20260508215759 | 26 | 172 | 11.3 | 22.5 | 0.00 | 0.08 | 0.08 | 62 | 1007.2 |
| 20260508215559 | 26 | 194 | 14.5 | 22.5 | 0.00 | 0.08 | 0.08 | 62 | 1007.2 |
| 20260508215500 | 26 | 179 | 12.9 | 22.5 | 0.00 | 0.08 | 0.08 | 62 | 1007.2 |
| 20260508215402 | 26 | 193 | 11.3 | 20.9 | 0.00 | 0.08 | 0.08 | 62 | 1007.2 |
| 20260508215200 | 26 | 142 | 9.7 | 17.7 | 0.00 | 0.08 | 0.08 | 63 | 1007.2 |
| 20260508215100 | 26 | 167 | 9.7 | 17.7 | 0.00 | 0.08 | 0.08 | 62 | 1007.2 |
| 20260508215001 | 26 | 158 | 8.0 | 17.7 | 0.00 | 0.08 | 0.08 | 62 | 1007.2 |
| 20260508214800 | 26 | 145 | 11.3 | 17.7 | 0.00 | 0.08 | 0.08 | 62 | 1007.3 |
| 20260508214601 | 26 | 140 | 9.7 | 17.7 | 0.00 | 0.08 | 0.08 | 63 | 1007.3 |
| 20260508214501 | 26 | 169 | 8.0 | 16.1 | 0.00 | 0.08 | 0.08 | 63 | 1007.3 |
| 20260508214400 | 26 | 142 | 8.0 | 16.1 | 0.00 | 0.08 | 0.08 | 64 | 1007.2 |
| 20260508214259 | 26 | 169 | 4.8 | 16.1 | 0.00 | 0.08 | 0.08 | 63 | 1007.3 |
| 20260508214200 | 26 | 150 | 4.8 | 16.1 | 0.00 | 0.08 | 0.08 | 62 | 1007.3 |
| 20260508214100 | 26 | 157 | 6.4 | 16.1 | 0.00 | 0.08 | 0.08 | 62 | 1007.2 |
| 20260508214001 | 26 | 146 | 8.0 | 24.1 | 0.00 | 0.08 | 0.08 | 62 | 1007.2 |
| 20260508213900 | 26 | 142 | 8.0 | 24.1 | 0.00 | 0.08 | 0.08 | 62 | 1007.3 |
| 20260508213800 | 26 | 196 | 8.0 | 24.1 | 0.00 | 0.08 | 0.08 | 62 | 1007.3 |
| 20260508213700 | 26 | 177 | 6.4 | 24.1 | 0.00 | 0.08 | 0.08 | 60 | 1007.3 |
| 20260508213600 | 26 | 163 | 8.0 | 24.1 | 0.00 | 0.08 | 0.08 | 60 | 1007.3 |
| 20260508213501 | 26 | 194 | 11.3 | 24.1 | 0.00 | 0.08 | 0.08 | 60 | 1007.3 |
| 20260508213400 | 26 | 175 | 12.9 | 24.1 | 0.00 | 0.08 | 0.08 | 60 | 1007.3 |
| 20260508213300 | 26 | 175 | 12.9 | 24.1 | 0.00 | 0.08 | 0.08 | 60 | 1007.3 |
| 20260508213103 | 26 | 175 | 11.3 | 22.5 | 0.00 | 0.08 | 0.08 | 60 | 1006.7 |
| 20260508213100 | 26 | 175 | 11.3 | 22.5 | 0.00 | 0.08 | 0.08 | 60 | 1007.4 |
| 20260508213000 | 26 | 192 | 11.3 | 22.5 | 0.00 | 0.08 | 0.08 | 60 | 1007.5 |
| 20260508212901 | 26 | 180 | 11.3 | 17.7 | 0.00 | 0.08 | 0.08 | 60 | 1007.5 |
| 20260508212800 | 26 | 149 | 8.0 | 16.1 | 0.00 | 0.08 | 0.08 | 62 | 1007.5 |
| 20260508212700 | 26 | 178 | 8.0 | 16.1 | 0.00 | 0.08 | 0.08 | 62 | 1007.5 |
| 20260508212601 | 26 | 169 | 8.0 | 16.1 | 0.00 | 0.08 | 0.08 | 62 | 1007.4 |
| 20260508212501 | 26 | 143 | 8.0 | 16.1 | 0.00 | 0.08 | 0.08 | 61 | 1007.5 |
| 20260508212402 | 26 | 169 | 8.0 | 16.1 | 0.00 | 0.08 | 0.08 | 61 | 1007.5 |
| 20260508212259 | 26 | 132 | 9.7 | 16.1 | 0.00 | 0.08 | 0.08 | 61 | 1007.6 |
| 20260508212200 | 26 | 142 | 8.0 | 16.1 | 0.00 | 0.08 | 0.08 | 61 | 1007.6 |
| 20260508212102 | 26 | 178 | 8.0 | 16.1 | 0.00 | 0.08 | 0.08 | 61 | 1007.6 |
| 20260508211802 | 26 | 180 | 8.0 | 16.1 | 0.00 | 0.08 | 0.08 | 59 | 1007.6 |
| 20260508211700 | 26 | 175 | 9.7 | 16.1 | 0.00 | 0.08 | 0.08 | 59 | 1007.9 |
| 20260508211601 | 26 | 186 | 12.9 | 16.1 | 0.00 | 0.08 | 0.08 | 59 | 1007.9 |
| 20260508211559 | 26 | 186 | 11.3 | 16.1 | 0.00 | 0.08 | 0.08 | 59 | 1007.1 |
| 20260508211400 | 26 | 203 | 11.3 | 16.1 | 0.00 | 0.08 | 0.08 | 59 | 1007.9 |
| 20260508211301 | 26 | 195 | 9.7 | 19.3 | 0.00 | 0.08 | 0.08 | 58 | 1007.9 |
| 20260508211001 | 26 | 176 | 4.8 | 19.3 | 0.00 | 0.08 | 0.08 | 61 | 1007.9 |
| 20260508210859 | 26 | 175 | 8.0 | 19.3 | 0.00 | 0.08 | 0.08 | 61 | 1007.9 |
| 20260508210800 | 26 | 192 | 8.0 | 27.4 | 0.00 | 0.08 | 0.08 | 61 | 1007.9 |
| 20260508210700 | 26 | 220 | 11.3 | 27.4 | 0.00 | 0.08 | 0.08 | 60 | 1007.9 |
| 20260508210600 | 26 | 202 | 9.7 | 27.4 | 0.00 | 0.08 | 0.08 | 60 | 1008.0 |
| 20260508210501 | 26 | 205 | 11.3 | 27.4 | 0.00 | 0.08 | 0.08 | 60 | 1008.0 |
| 20260508210302 | 26 | 188 | 9.7 | 27.4 | 0.00 | 0.08 | 0.08 | 61 | 1008.0 |
| 20260508210159 | 26 | 182 | 11.3 | 27.4 | 0.00 | 0.08 | 0.08 | 61 | 1008.1 |
| 20260508210100 | 26 | 157 | 11.3 | 27.4 | 0.00 | 0.08 | 0.08 | 60 | 1007.4 |
| 20260508205859 | 26 | 174 | 12.9 | 27.4 | 0.00 | 0.08 | 0.08 | 62 | 1008.2 |
| 20260508205759 | 26 | 189 | 9.7 | 19.3 | 0.00 | 0.08 | 0.08 | 62 | 1008.2 |
| 20260508205658 | 26 | 176 | 8.0 | 17.7 | 0.00 | 0.08 | 0.08 | 62 | 1008.2 |
| 20260508205459 | 26 | 198 | 9.7 | 19.3 | 0.00 | 0.08 | 0.08 | 62 | 1008.1 |
| 20260508205401 | 26 | 156 | 9.7 | 19.3 | 0.00 | 0.08 | 0.08 | 61 | 1008.2 |
| 20260508205259 | 26 | 198 | 9.7 | 19.3 | 0.00 | 0.08 | 0.08 | 63 | 1008.2 |
| 20260508205158 | 26 | 188 | 8.0 | 19.3 | 0.00 | 0.08 | 0.08 | 63 | 1008.4 |
| 20260508205059 | 26 | 198 | 9.7 | 19.3 | 0.00 | 0.08 | 0.08 | 62 | 1008.3 |
| 20260508204859 | 26 | 171 | 11.3 | 19.3 | 0.00 | 0.08 | 0.08 | 60 | 1008.4 |
| 20260508204800 | 26 | 161 | 12.9 | 19.3 | 0.00 | 0.08 | 0.08 | 61 | 1008.4 |
| 20260508204700 | 26 | 189 | 12.9 | 22.5 | 0.00 | 0.08 | 0.08 | 61 | 1008.5 |
| 20260508204559 | 26 | 142 | 12.9 | 22.5 | 0.00 | 0.08 | 0.08 | 62 | 1008.5 |
| 20260508204459 | 26 | 185 | 12.9 | 22.5 | 0.00 | 0.08 | 0.08 | 60 | 1008.5 |
| 20260508204359 | 26 | 176 | 14.5 | 22.5 | 0.00 | 0.08 | 0.08 | 60 | 1008.5 |
| 20260508204300 | 26 | 160 | 14.5 | 22.5 | 0.00 | 0.08 | 0.08 | 60 | 1008.6 |
| 20260508204200 | 26 | 166 | 14.5 | 22.5 | 0.00 | 0.08 | 0.08 | 63 | 1008.5 |
| 20260508204100 | 26 | 166 | 12.9 | 22.5 | 0.00 | 0.08 | 0.08 | 63 | 1008.6 |
| 20260508204000 | 26 | 161 | 12.9 | 22.5 | 0.00 | 0.08 | 0.08 | 60 | 1008.6 |
| 20260508203858 | 26 | 146 | 12.9 | 22.5 | 0.00 | 0.08 | 0.08 | 62 | 1008.6 |
| 20260508203701 | 26 | 177 | 8.0 | 20.9 | 0.00 | 0.08 | 0.08 | 62 | 1008.5 |
| 20260508203459 | 26 | 162 | 9.7 | 17.7 | 0.00 | 0.08 | 0.08 | 64 | 1008.6 |
| 20260508203359 | 26 | 208 | 11.3 | 17.7 | 0.00 | 0.08 | 0.08 | 62 | 1008.6 |
| 20260508203300 | 26 | 184 | 12.9 | 17.7 | 0.00 | 0.08 | 0.08 | 61 | 1008.5 |
| 20260508203100 | 26 | 148 | 11.3 | 19.3 | 0.00 | 0.08 | 0.08 | 61 | 1008.7 |
| 20260508203059 | 26 | 148 | 11.3 | 19.3 | 0.00 | 0.08 | 0.08 | 61 | 1008.1 |
| 20260508202900 | 26 | 137 | 6.4 | 17.7 | 0.00 | 0.08 | 0.08 | 64 | 1008.7 |
| 20260508202800 | 26 | 171 | 8.0 | 17.7 | 0.00 | 0.08 | 0.08 | 61 | 1008.7 |
| 20260508202659 | 25 | 195 | 11.3 | 17.7 | 0.00 | 0.08 | 0.08 | 62 | 1008.7 |
| 20260508202359 | 25 | 173 | 11.3 | 25.7 | 0.00 | 0.08 | 0.08 | 62 | 1008.8 |
| 20260508202300 | 25 | 172 | 11.3 | 25.7 | 0.00 | 0.08 | 0.08 | 61 | 1008.8 |
| 20260508202158 | 25 | 169 | 11.3 | 25.7 | 0.00 | 0.08 | 0.08 | 61 | 1008.8 |
| 20260508201959 | 25 | 208 | 9.7 | 25.7 | 0.00 | 0.08 | 0.08 | 61 | 1008.9 |
| 20260508201859 | 25 | 158 | 11.3 | 25.7 | 0.00 | 0.08 | 0.08 | 62 | 1008.9 |
| 20260508201659 | 25 | 159 | 16.1 | 25.7 | 0.00 | 0.08 | 0.08 | 62 | 1008.9 |
| 20260508201610 | 25 | 150 | 14.5 | 25.7 | 0.00 | 0.08 | 0.08 | 62 | 1008.2 |
| 20260508201600 | 25 | 150 | 14.5 | 25.7 | 0.00 | 0.08 | 0.08 | 62 | 1008.8 |
| 20260508201459 | 25 | 180 | 14.5 | 22.5 | 0.00 | 0.08 | 0.08 | 62 | 1008.8 |
| 20260508201359 | 25 | 157 | 14.5 | 22.5 | 0.00 | 0.08 | 0.08 | 61 | 1008.8 |
| 20260508201259 | 25 | 173 | 14.5 | 22.5 | 0.00 | 0.08 | 0.08 | 63 | 1008.9 |
| 20260508201200 | 25 | 166 | 12.9 | 22.5 | 0.00 | 0.08 | 0.08 | 63 | 1008.8 |
| 20260508201101 | 25 | 172 | 11.3 | 22.5 | 0.00 | 0.08 | 0.08 | 63 | 1008.9 |
| 20260508200859 | 25 | 151 | 9.7 | 22.5 | 0.00 | 0.08 | 0.08 | 63 | 1008.9 |
| 20260508200800 | 25 | 153 | 8.0 | 22.5 | 0.00 | 0.08 | 0.08 | 63 | 1008.9 |
| 20260508200658 | 25 | 185 | 9.7 | 22.5 | 0.00 | 0.08 | 0.08 | 63 | 1009.0 |
| 20260508200600 | 25 | 180 | 11.3 | 27.4 | 0.00 | 0.08 | 0.08 | 63 | 1009.1 |
| 20260508200500 | 25 | 193 | 11.3 | 27.4 | 0.00 | 0.08 | 0.08 | 61 | 1009.0 |
| 20260508200400 | 25 | 182 | 9.7 | 27.4 | 0.00 | 0.08 | 0.08 | 61 | 1009.1 |
| 20260508200258 | 25 | 183 | 8.0 | 27.4 | 0.00 | 0.08 | 0.08 | 61 | 1009.1 |
| 20260508200159 | 25 | 175 | 9.7 | 27.4 | 0.00 | 0.08 | 0.08 | 61 | 1009.1 |
| 20260508200107 | 25 | 161 | 11.3 | 27.4 | 0.00 | 0.08 | 0.08 | 60 | 1008.5 |
| 20260508200059 | 25 | 161 | 11.3 | 27.4 | 0.00 | 0.08 | 0.08 | 60 | 1009.1 |
| 20260508195959 | 25 | 169 | 12.9 | 27.4 | 0.00 | 0.08 | 0.08 | 59 | 1009.3 |
| 20260508195859 | 25 | 178 | 14.5 | 27.4 | 0.00 | 0.08 | 0.08 | 61 | 1009.1 |
| 20260508195759 | 25 | 190 | 12.9 | 25.7 | 0.00 | 0.08 | 0.08 | 61 | 1009.2 |
| 20260508195700 | 25 | 170 | 11.3 | 16.1 | 0.00 | 0.08 | 0.08 | 61 | 1009.2 |
| 20260508195559 | 25 | 169 | 11.3 | 17.7 | 0.00 | 0.08 | 0.08 | 60 | 1009.2 |
| 20260508195459 | 25 | 176 | 11.3 | 16.1 | 0.00 | 0.08 | 0.08 | 60 | 1009.3 |
| 20260508195400 | 25 | 190 | 11.3 | 16.1 | 0.00 | 0.08 | 0.08 | 62 | 1009.3 |
| 20260508195259 | 25 | 152 | 11.3 | 16.1 | 0.00 | 0.08 | 0.08 | 62 | 1009.2 |
| 20260508195200 | 25 | 172 | 9.7 | 19.3 | 0.00 | 0.08 | 0.08 | 64 | 1009.3 |
| 20260508195059 | 25 | 176 | 8.0 | 17.7 | 0.00 | 0.08 | 0.08 | 65 | 1009.4 |
| 20260508194959 | 25 | 182 | 6.4 | 17.7 | 0.00 | 0.08 | 0.08 | 64 | 1009.3 |
| 20260508194859 | 25 | 184 | 6.4 | 17.7 | 0.00 | 0.08 | 0.08 | 66 | 1009.5 |
| 20260508194759 | 25 | 182 | 8.0 | 17.7 | 0.00 | 0.08 | 0.08 | 64 | 1009.4 |
| 20260508194659 | 25 | 154 | 8.0 | 17.7 | 0.00 | 0.08 | 0.08 | 64 | 1009.4 |
| 20260508194601 | 25 | 188 | 9.7 | 17.7 | 0.00 | 0.08 | 0.08 | 62 | 1008.8 |
| 20260508194559 | 25 | 188 | 11.3 | 17.7 | 0.00 | 0.08 | 0.08 | 62 | 1009.5 |
| 20260508194458 | 25 | 187 | 12.9 | 17.7 | 0.00 | 0.08 | 0.08 | 62 | 1009.5 |
| 20260508194359 | 25 | 192 | 12.9 | 19.3 | 0.00 | 0.08 | 0.08 | 62 | 1009.5 |
| 20260508194259 | 25 | 195 | 11.3 | 16.1 | 0.00 | 0.08 | 0.08 | 62 | 1009.5 |
| 20260508194200 | 25 | 153 | 9.7 | 16.1 | 0.00 | 0.08 | 0.08 | 63 | 1009.5 |
| 20260508194100 | 25 | 169 | 9.7 | 14.5 | 0.00 | 0.08 | 0.08 | 63 | 1009.5 |
| 20260508194000 | 24 | 181 | 9.7 | 14.5 | 0.00 | 0.08 | 0.08 | 63 | 1009.6 |
| 20260508193859 | 24 | 175 | 9.7 | 14.5 | 0.00 | 0.08 | 0.08 | 65 | 1009.6 |
| 20260508193759 | 24 | 173 | 9.7 | 14.5 | 0.00 | 0.08 | 0.08 | 63 | 1009.5 |
| 20260508193700 | 24 | 194 | 9.7 | 14.5 | 0.00 | 0.08 | 0.08 | 67 | 1009.7 |
| 20260508193559 | 24 | 209 | 8.0 | 14.5 | 0.00 | 0.08 | 0.08 | 66 | 1009.6 |
| 20260508193358 | 23 | 143 | 8.0 | 12.9 | 0.00 | 0.08 | 0.08 | 66 | 1009.6 |
| 20260508193300 | 23 | 164 | 8.0 | 12.9 | 0.00 | 0.08 | 0.08 | 66 | 1009.6 |
| 20260508193110 | 23 | 154 | 8.0 | 12.9 | 0.00 | 0.08 | 0.08 | 64 | 1009.1 |
| 20260508193059 | 23 | 154 | 8.0 | 12.9 | 0.00 | 0.08 | 0.08 | 64 | 1009.7 |
| 20260508192959 | 23 | 158 | 8.0 | 12.9 | 0.00 | 0.08 | 0.08 | 64 | 1009.7 |
| 20260508192900 | 23 | 139 | 6.4 | 12.9 | 0.00 | 0.08 | 0.08 | 66 | 1009.7 |
| 20260508192800 | 23 | 142 | 4.8 | 11.3 | 0.00 | 0.08 | 0.08 | 65 | 1009.8 |
| 20260508192659 | 23 | 142 | 4.8 | 11.3 | 0.00 | 0.08 | 0.08 | 65 | 1009.8 |
| 20260508192559 | 23 | 150 | 4.8 | 11.3 | 0.00 | 0.08 | 0.08 | 66 | 1009.8 |
| 20260508192459 | 23 | 173 | 4.8 | 11.3 | 0.00 | 0.08 | 0.08 | 64 | 1009.9 |
| 20260508192358 | 23 | 165 | 4.8 | 11.3 | 0.00 | 0.08 | 0.08 | 64 | 1009.9 |
| 20260508192300 | 23 | 164 | 4.8 | 11.3 | 0.00 | 0.08 | 0.08 | 63 | 1009.9 |
| 20260508192159 | 23 | 175 | 6.4 | 11.3 | 0.00 | 0.08 | 0.08 | 63 | 1009.9 |
| 20260508192059 | 23 | 167 | 6.4 | 11.3 | 0.00 | 0.08 | 0.08 | 64 | 1009.9 |
| 20260508191958 | 23 | 152 | 6.4 | 11.3 | 0.00 | 0.08 | 0.08 | 64 | 1009.9 |
| 20260508191858 | 23 | 150 | 4.8 | 11.3 | 0.00 | 0.08 | 0.08 | 63 | 1009.9 |
| 20260508191600 | 23 | 212 | 4.8 | 14.5 | 0.00 | 0.08 | 0.08 | 61 | 1009.9 |
| 20260508191558 | 23 | 212 | 3.2 | 14.5 | 0.00 | 0.08 | 0.08 | 61 | 1009.2 |
| 20260508191459 | 23 | 193 | 4.8 | 14.5 | 0.00 | 0.08 | 0.08 | 62 | 1009.9 |
| 20260508191359 | 24 | 222 | 6.4 | 14.5 | 0.00 | 0.08 | 0.08 | 62 | 1009.9 |
| 20260508191300 | 24 | 167 | 8.0 | 14.5 | 0.00 | 0.08 | 0.08 | 63 | 1009.9 |
| 20260508191159 | 24 | 153 | 8.0 | 14.5 | 0.00 | 0.08 | 0.08 | 63 | 1009.9 |
| 20260508190958 | 24 | 165 | 8.0 | 14.5 | 0.00 | 0.08 | 0.08 | 62 | 1009.9 |
| 20260508190859 | 24 | 178 | 9.7 | 14.5 | 0.00 | 0.08 | 0.08 | 62 | 1009.9 |
| 20260508190800 | 23 | 180 | 8.0 | 16.1 | 0.00 | 0.08 | 0.08 | 63 | 1009.9 |
| 20260508190701 | 23 | 191 | 4.8 | 12.9 | 0.00 | 0.08 | 0.08 | 64 | 1009.9 |
| 20260508190559 | 23 | 167 | 6.4 | 12.9 | 0.00 | 0.08 | 0.08 | 64 | 1009.8 |
| 20260508190500 | 23 | 140 | 9.7 | 12.9 | 0.00 | 0.08 | 0.08 | 64 | 1009.9 |
| 20260508190359 | 23 | 132 | 8.0 | 14.5 | 0.00 | 0.08 | 0.08 | 63 | 1009.9 |
| 20260508190259 | 23 | 146 | 8.0 | 14.5 | 0.00 | 0.08 | 0.08 | 62 | 1009.9 |
| 20260508190200 | 23 | 158 | 8.0 | 11.3 | 0.00 | 0.08 | 0.08 | 62 | 1009.9 |
| 20260508190100 | 23 | 170 | 9.7 | 11.3 | 0.00 | 0.08 | 0.08 | 62 | 1009.9 |
| 20260508185959 | 23 | 165 | 9.7 | 14.5 | 0.00 | 0.08 | 0.08 | 62 | 1009.8 |
| 20260508185858 | 23 | 173 | 6.4 | 14.5 | 0.00 | 0.08 | 0.08 | 63 | 1009.9 |
| 20260508185758 | 23 | 211 | 3.2 | 14.5 | 0.00 | 0.08 | 0.08 | 66 | 1009.9 |
| 20260508185558 | 23 | 199 | 4.8 | 14.5 | 0.00 | 0.08 | 0.08 | 65 | 1009.8 |
| 20260508185459 | 23 | 198 | 6.4 | 14.5 | 0.00 | 0.08 | 0.08 | 65 | 1009.8 |
| 20260508185359 | 23 | 201 | 8.0 | 14.5 | 0.00 | 0.08 | 0.08 | 65 | 1009.9 |
| 20260508185158 | 23 | 177 | 6.4 | 14.5 | 0.00 | 0.08 | 0.08 | 66 | 1009.8 |
| 20260508185058 | 23 | 178 | 8.0 | 12.9 | 0.00 | 0.08 | 0.08 | 63 | 1009.9 |
| 20260508184959 | 23 | 209 | 9.7 | 12.9 | 0.00 | 0.08 | 0.08 | 63 | 1009.9 |
| 20260508184858 | 23 | 182 | 9.7 | 12.9 | 0.00 | 0.08 | 0.08 | 63 | 1010.0 |
| 20260508184800 | 23 | 171 | 8.0 | 12.9 | 0.00 | 0.08 | 0.08 | 65 | 1009.9 |
| 20260508184659 | 23 | 159 | 6.4 | 12.9 | 0.00 | 0.08 | 0.08 | 65 | 1010.0 |
| 20260508184609 | 23 | 177 | 6.4 | 16.1 | 0.00 | 0.08 | 0.08 | 64 | 1009.4 |
| 20260508184459 | 23 | 166 | 9.7 | 16.1 | 0.00 | 0.08 | 0.08 | 64 | 1010.0 |
| 20260508184259 | 23 | 146 | 6.4 | 16.1 | 0.00 | 0.08 | 0.08 | 65 | 1010.1 |
| 20260508184159 | 23 | 199 | 4.8 | 16.1 | 0.00 | 0.08 | 0.08 | 67 | 1010.1 |
| 20260508184059 | 23 | 235 | 8.0 | 16.1 | 0.00 | 0.08 | 0.08 | 65 | 1010.1 |
| 20260508183958 | 23 | 173 | 8.0 | 16.1 | 0.00 | 0.08 | 0.08 | 65 | 1010.1 |
| 20260508183859 | 23 | 167 | 8.0 | 16.1 | 0.00 | 0.08 | 0.08 | 65 | 1010.1 |
| 20260508183758 | 23 | 161 | 9.7 | 16.1 | 0.00 | 0.08 | 0.08 | 64 | 1010.1 |
| 20260508183659 | 23 | 163 | 9.7 | 16.1 | 0.00 | 0.08 | 0.08 | 64 | 1010.1 |
| 20260508183559 | 23 | 153 | 8.0 | 16.1 | 0.00 | 0.08 | 0.08 | 63 | 1010.2 |
| 20260508183459 | 23 | 205 | 8.0 | 16.1 | 0.00 | 0.08 | 0.08 | 63 | 1010.2 |
| 20260508183358 | 23 | 168 | 8.0 | 16.1 | 0.00 | 0.08 | 0.08 | 65 | 1010.3 |
| 20260508183259 | 23 | 200 | 8.0 | 16.1 | 0.00 | 0.08 | 0.08 | 65 | 1010.3 |
| 20260508183159 | 23 | 159 | 8.0 | 16.1 | 0.00 | 0.08 | 0.08 | 64 | 1010.3 |
| 20260508183106 | 23 | 155 | 6.4 | 16.1 | 0.00 | 0.08 | 0.08 | 68 | 1009.7 |
| 20260508183100 | 23 | 155 | 8.0 | 16.1 | 0.00 | 0.08 | 0.08 | 68 | 1010.3 |
| 20260508182958 | 23 | 154 | 8.0 | 16.1 | 0.00 | 0.08 | 0.08 | 68 | 1010.3 |
| 20260508182858 | 23 | 152 | 9.7 | 14.5 | 0.00 | 0.08 | 0.08 | 68 | 1010.3 |
| 20260508182659 | 23 | 161 | 11.3 | 14.5 | 0.00 | 0.08 | 0.08 | 67 | 1010.3 |
| 20260508182558 | 23 | 128 | 9.7 | 14.5 | 0.00 | 0.08 | 0.08 | 67 | 1010.3 |
| 20260508182458 | 23 | 153 | 8.0 | 14.5 | 0.00 | 0.08 | 0.08 | 68 | 1010.4 |
| 20260508182357 | 23 | 153 | 8.0 | 14.5 | 0.00 | 0.08 | 0.08 | 67 | 1010.5 |
| 20260508182258 | 23 | 194 | 8.0 | 14.5 | 0.00 | 0.08 | 0.08 | 67 | 1010.5 |
| 20260508182158 | 22 | 161 | 8.0 | 14.5 | 0.00 | 0.08 | 0.08 | 67 | 1010.5 |
| 20260508182058 | 22 | 159 | 6.4 | 14.5 | 0.00 | 0.08 | 0.08 | 66 | 1010.6 |
| 20260508181959 | 23 | 194 | 6.4 | 14.5 | 0.00 | 0.08 | 0.08 | 64 | 1010.6 |
| 20260508181757 | 23 | 197 | 8.0 | 14.5 | 0.00 | 0.08 | 0.08 | 64 | 1010.6 |
| 20260508181600 | 23 | 192 | 4.8 | 14.5 | 0.00 | 0.08 | 0.08 | 65 | 1010.0 |
| 20260508181559 | 23 | 192 | 6.4 | 14.5 | 0.00 | 0.08 | 0.08 | 65 | 1010.6 |
| 20260508181458 | 23 | 152 | 4.8 | 12.9 | 0.00 | 0.08 | 0.08 | 64 | 1010.6 |
| 20260508181359 | 23 | 181 | 6.4 | 12.9 | 0.00 | 0.08 | 0.08 | 64 | 1010.5 |
| 20260508181258 | 23 | 161 | 6.4 | 14.5 | 0.00 | 0.08 | 0.08 | 64 | 1010.6 |
| 20260508181159 | 23 | 142 | 6.4 | 14.5 | 0.00 | 0.08 | 0.08 | 65 | 1010.6 |
| 20260508181059 | 23 | 162 | 4.8 | 12.9 | 0.00 | 0.08 | 0.08 | 63 | 1010.7 |
| 20260508180958 | 23 | 204 | 6.4 | 14.5 | 0.00 | 0.08 | 0.08 | 64 | 1010.7 |
| 20260508180859 | 23 | 154 | 6.4 | 14.5 | 0.00 | 0.08 | 0.08 | 64 | 1010.6 |
| 20260508180758 | 23 | 186 | 6.4 | 14.5 | 0.00 | 0.08 | 0.08 | 67 | 1010.7 |
| 20260508180658 | 23 | 126 | 6.4 | 14.5 | 0.00 | 0.08 | 0.08 | 69 | 1010.6 |
| 20260508180558 | 23 | 149 | 6.4 | 17.7 | 0.00 | 0.08 | 0.08 | 69 | 1010.6 |
| 20260508180458 | 23 | 117 | 8.0 | 17.7 | 0.00 | 0.08 | 0.08 | 67 | 1010.6 |
| 20260508180359 | 23 | 120 | 8.0 | 17.7 | 0.00 | 0.08 | 0.08 | 67 | 1010.6 |
| 20260508180258 | 23 | 140 | 9.7 | 17.7 | 0.00 | 0.08 | 0.08 | 66 | 1010.6 |
| 20260508180159 | 23 | 157 | 9.7 | 17.7 | 0.00 | 0.08 | 0.08 | 66 | 1010.6 |
| 20260508180100 | 23 | 206 | 9.7 | 17.7 | 0.00 | 0.08 | 0.08 | 65 | 1010.1 |
| 20260508180002 | 23 | 166 | 9.7 | 17.7 | 0.00 | 0.08 | 0.08 | 67 | 1010.8 |
| 20260508175900 | 23 | 198 | 8.0 | 17.7 | 0.00 | 0.08 | 0.08 | 67 | 1010.9 |
| 20260508175800 | 23 | 133 | 6.4 | 16.1 | 0.00 | 0.08 | 0.08 | 70 | 1010.7 |
| 20260508175700 | 23 | 136 | 4.8 | 16.1 | 0.00 | 0.08 | 0.08 | 72 | 1010.8 |
| 20260508175600 | 23 | 142 | 8.0 | 16.1 | 0.00 | 0.08 | 0.08 | 72 | 1010.9 |
| 20260508175501 | 23 | 108 | 6.4 | 16.1 | 0.00 | 0.08 | 0.08 | 68 | 1010.9 |
| 20260508175359 | 23 | 140 | 8.0 | 14.5 | 0.00 | 0.08 | 0.08 | 68 | 1011.0 |
| 20260508175300 | 22 | 174 | 9.7 | 14.5 | 0.00 | 0.08 | 0.08 | 69 | 1011.0 |
| 20260508175200 | 22 | 173 | 8.0 | 14.5 | 0.00 | 0.08 | 0.08 | 69 | 1011.1 |
| 20260508175000 | 22 | 200 | 3.2 | 14.5 | 0.00 | 0.08 | 0.08 | 71 | 1011.2 |
| 20260508174900 | 22 | 140 | 1.6 | 16.1 | 0.00 | 0.08 | 0.08 | 71 | 1011.2 |
| 20260508174800 | 22 | 229 | 3.2 | 16.1 | 0.00 | 0.08 | 0.08 | 69 | 1011.2 |
| 20260508174659 | 22 | 229 | 6.4 | 16.1 | 0.00 | 0.08 | 0.08 | 71 | 1011.3 |
| 20260508174607 | 22 | 205 | 8.0 | 16.1 | 0.00 | 0.08 | 0.08 | 70 | 1010.7 |
| 20260508174500 | 22 | 207 | 9.7 | 16.1 | 0.00 | 0.08 | 0.08 | 69 | 1011.4 |
| 20260508174359 | 22 | 154 | 11.3 | 16.1 | 0.00 | 0.08 | 0.08 | 70 | 1011.4 |
| 20260508174300 | 22 | 152 | 9.7 | 16.1 | 0.00 | 0.08 | 0.08 | 70 | 1011.4 |
| 20260508174201 | 22 | 181 | 9.7 | 16.1 | 0.00 | 0.08 | 0.08 | 71 | 1011.4 |
| 20260508174101 | 22 | 174 | 8.0 | 16.1 | 0.00 | 0.08 | 0.08 | 71 | 1011.5 |
| 20260508174000 | 22 | 146 | 8.0 | 16.1 | 0.00 | 0.08 | 0.08 | 71 | 1011.5 |
| 20260508173900 | 22 | 198 | 6.4 | 14.5 | 0.00 | 0.08 | 0.08 | 68 | 1011.5 |
| 20260508173759 | 22 | 257 | 8.0 | 14.5 | 0.00 | 0.08 | 0.08 | 69 | 1011.6 |
| 20260508173659 | 22 | 201 | 9.7 | 14.5 | 0.00 | 0.08 | 0.08 | 69 | 1011.6 |
| 20260508173600 | 22 | 186 | 9.7 | 14.5 | 0.00 | 0.08 | 0.08 | 67 | 1011.6 |
| 20260508173459 | 22 | 217 | 8.0 | 14.5 | 0.00 | 0.08 | 0.08 | 68 | 1011.6 |
| 20260508173359 | 22 | 200 | 6.4 | 16.1 | 0.00 | 0.08 | 0.08 | 68 | 1011.7 |
| 20260508173300 | 22 | 142 | 4.8 | 16.1 | 0.00 | 0.08 | 0.08 | 68 | 1011.6 |
| 20260508173159 | 22 | 184 | 8.0 | 16.1 | 0.00 | 0.08 | 0.08 | 69 | 1011.7 |
| 20260508173058 | 22 | 207 | 8.0 | 16.1 | 0.00 | 0.08 | 0.08 | 69 | 1011.2 |
| 20260508173000 | 22 | 196 | 11.3 | 16.1 | 0.00 | 0.08 | 0.08 | 69 | 1011.7 |
| 20260508172800 | 22 | 157 | 6.4 | 14.5 | 0.00 | 0.08 | 0.08 | 72 | 1011.8 |
| 20260508172700 | 22 | 146 | 6.4 | 14.5 | 0.00 | 0.08 | 0.08 | 72 | 1011.8 |
| 20260508172600 | 22 | 143 | 8.0 | 14.5 | 0.00 | 0.08 | 0.08 | 71 | 1011.9 |
| 20260508172500 | 22 | 136 | 8.0 | 14.5 | 0.00 | 0.08 | 0.08 | 74 | 1011.9 |
| 20260508172400 | 22 | 150 | 4.8 | 14.5 | 0.00 | 0.08 | 0.08 | 74 | 1011.9 |
| 20260508172300 | 22 | 169 | 4.8 | 14.5 | 0.00 | 0.08 | 0.08 | 73 | 1011.9 |
| 20260508172059 | 21 | 169 | 8.0 | 14.5 | 0.00 | 0.08 | 0.08 | 72 | 1011.9 |
| 20260508172000 | 21 | 159 | 8.0 | 14.5 | 0.00 | 0.08 | 0.08 | 72 | 1012.0 |
| 20260508171859 | 21 | 162 | 4.8 | 12.9 | 0.00 | 0.08 | 0.08 | 72 | 1012.0 |
| 20260508171659 | 21 | 206 | 4.8 | 12.9 | 0.00 | 0.08 | 0.08 | 70 | 1012.0 |
| 20260508171601 | 21 | 205 | 4.8 | 12.9 | 0.00 | 0.08 | 0.08 | 72 | 1011.5 |
| 20260508171559 | 21 | 205 | 4.8 | 12.9 | 0.00 | 0.08 | 0.08 | 72 | 1012.1 |
| 20260508171501 | 21 | 194 | 4.8 | 12.9 | 0.00 | 0.08 | 0.08 | 70 | 1012.0 |
| 20260508171400 | 21 | 189 | 6.4 | 12.9 | 0.00 | 0.08 | 0.08 | 71 | 1012.1 |
| 20260508171100 | 21 | 186 | 6.4 | 12.9 | 0.00 | 0.08 | 0.08 | 73 | 1012.2 |
| 20260508171000 | 21 | 192 | 4.8 | 12.9 | 0.00 | 0.08 | 0.08 | 74 | 1012.2 |
| 20260508170900 | 21 | 183 | 4.8 | 12.9 | 0.00 | 0.08 | 0.08 | 73 | 1012.3 |
| 20260508170700 | 21 | 165 | 6.4 | 12.9 | 0.00 | 0.08 | 0.08 | 72 | 1012.3 |
| 20260508170600 | 21 | 157 | 6.4 | 12.9 | 0.00 | 0.08 | 0.08 | 73 | 1012.4 |
| 20260508170500 | 21 | 179 | 8.0 | 12.9 | 0.00 | 0.08 | 0.08 | 73 | 1012.4 |
| 20260508170400 | 21 | 160 | 6.4 | 12.9 | 0.00 | 0.08 | 0.08 | 73 | 1012.5 |
| 20260508170259 | 21 | 142 | 3.2 | 12.9 | 0.00 | 0.08 | 0.08 | 73 | 1012.4 |
| 20260508170159 | 21 | 148 | 1.6 | 12.9 | 0.00 | 0.08 | 0.08 | 73 | 1012.4 |
| 20260508170059 | 21 | 200 | 3.2 | 12.9 | 0.00 | 0.08 | 0.08 | 74 | 1012.5 |
| 20260508165858 | 21 | 197 | 4.8 | 12.9 | 0.00 | 0.08 | 0.08 | 74 | 1012.6 |
| 20260508165758 | 21 | 173 | 8.0 | 12.9 | 0.00 | 0.08 | 0.08 | 74 | 1012.6 |
| 20260508165659 | 21 | 159 | 8.0 | 12.9 | 0.00 | 0.08 | 0.08 | 73 | 1012.6 |
| 20260508165600 | 21 | 162 | 8.0 | 14.5 | 0.00 | 0.08 | 0.08 | 74 | 1012.6 |
| 20260508165459 | 21 | 154 | 6.4 | 12.9 | 0.00 | 0.08 | 0.08 | 72 | 1012.7 |
| 20260508165259 | 20 | 180 | 6.4 | 12.9 | 0.00 | 0.08 | 0.08 | 74 | 1012.7 |
| 20260508164959 | 20 | 168 | 4.8 | 14.5 | 0.00 | 0.08 | 0.08 | 75 | 1012.6 |
| 20260508164758 | 20 | 205 | 6.4 | 16.1 | 0.00 | 0.08 | 0.08 | 76 | 1012.7 |
| 20260508164700 | 20 | 182 | 8.0 | 16.1 | 0.00 | 0.08 | 0.08 | 76 | 1012.7 |
| 20260508164605 | 20 | 198 | 8.0 | 16.1 | 0.00 | 0.08 | 0.08 | 75 | 1012.2 |
| 20260508164600 | 20 | 198 | 8.0 | 16.1 | 0.00 | 0.08 | 0.08 | 75 | 1012.7 |
| 20260508164459 | 20 | 198 | 8.0 | 16.1 | 0.00 | 0.08 | 0.08 | 75 | 1012.7 |
| 20260508164358 | 20 | 172 | 8.0 | 16.1 | 0.00 | 0.08 | 0.08 | 75 | 1012.8 |
| 20260508164259 | 20 | 198 | 8.0 | 16.1 | 0.00 | 0.08 | 0.08 | 74 | 1012.8 |
| 20260508164159 | 20 | 196 | 9.7 | 16.1 | 0.00 | 0.08 | 0.08 | 73 | 1012.8 |
| 20260508164100 | 20 | 177 | 9.7 | 17.7 | 0.00 | 0.08 | 0.08 | 73 | 1012.9 |
| 20260508164000 | 20 | 207 | 9.7 | 17.7 | 0.00 | 0.08 | 0.08 | 73 | 1012.8 |
| 20260508163859 | 20 | 181 | 9.7 | 17.7 | 0.00 | 0.08 | 0.08 | 73 | 1012.8 |
| 20260508163759 | 20 | 173 | 8.0 | 17.7 | 0.00 | 0.08 | 0.08 | 74 | 1012.8 |
| 20260508163659 | 20 | 199 | 8.0 | 17.7 | 0.00 | 0.08 | 0.08 | 74 | 1012.8 |
| 20260508163558 | 20 | 187 | 8.0 | 17.7 | 0.00 | 0.08 | 0.08 | 73 | 1012.8 |
| 20260508163500 | 20 | 186 | 9.7 | 17.7 | 0.00 | 0.08 | 0.08 | 73 | 1012.8 |
| 20260508163359 | 20 | 170 | 8.0 | 14.5 | 0.00 | 0.08 | 0.08 | 74 | 1012.8 |
| 20260508163300 | 20 | 178 | 6.4 | 14.5 | 0.00 | 0.08 | 0.08 | 74 | 1012.8 |
| 20260508163159 | 20 | 165 | 6.4 | 16.1 | 0.00 | 0.08 | 0.08 | 74 | 1012.9 |
| 20260508163117 | 20 | 198 | 6.4 | 16.1 | 0.00 | 0.08 | 0.08 | 72 | 1012.4 |
| 20260508163000 | 21 | 169 | 8.0 | 16.1 | 0.00 | 0.08 | 0.08 | 72 | 1012.9 |
| 20260508162859 | 21 | 187 | 4.8 | 16.1 | 0.00 | 0.08 | 0.08 | 74 | 1012.9 |
| 20260508162759 | 21 | 200 | 4.8 | 16.1 | 0.00 | 0.08 | 0.08 | 74 | 1013.0 |
| 20260508162700 | 21 | 198 | 4.8 | 16.1 | 0.00 | 0.08 | 0.08 | 73 | 1013.0 |
| 20260508162500 | 21 | 152 | 8.0 | 16.1 | 0.00 | 0.08 | 0.08 | 74 | 1013.0 |
| 20260508162359 | 21 | 184 | 9.7 | 16.1 | 0.00 | 0.08 | 0.08 | 73 | 1013.0 |
| 20260508162300 | 21 | 179 | 9.7 | 16.1 | 0.00 | 0.08 | 0.08 | 73 | 1013.0 |
| 20260508162200 | 21 | 188 | 9.7 | 14.5 | 0.00 | 0.08 | 0.08 | 75 | 1013.0 |
| 20260508162100 | 21 | 166 | 8.0 | 14.5 | 0.00 | 0.08 | 0.08 | 75 | 1013.0 |
| 20260508161900 | 21 | 172 | 6.4 | 14.5 | 0.00 | 0.08 | 0.08 | 75 | 1013.0 |
| 20260508161601 | 20 | 203 | 6.4 | 16.1 | 0.00 | 0.08 | 0.08 | 75 | 1012.5 |
| 20260508161500 | 20 | 227 | 8.0 | 16.1 | 0.00 | 0.08 | 0.08 | 78 | 1013.0 |
| 20260508161400 | 20 | 182 | 6.4 | 16.1 | 0.00 | 0.08 | 0.08 | 76 | 1013.0 |
| 20260508161300 | 20 | 169 | 8.0 | 16.1 | 0.00 | 0.08 | 0.08 | 76 | 1013.0 |
| 20260508161200 | 20 | 184 | 6.4 | 16.1 | 0.00 | 0.08 | 0.08 | 78 | 1013.1 |
| 20260508161100 | 20 | 207 | 8.0 | 16.1 | 0.00 | 0.08 | 0.08 | 78 | 1013.0 |
| 20260508161000 | 20 | 197 | 9.7 | 16.1 | 0.00 | 0.08 | 0.08 | 77 | 1013.0 |
| 20260508160900 | 20 | 145 | 11.3 | 16.1 | 0.00 | 0.08 | 0.08 | 76 | 1013.0 |
| 20260508160700 | 20 | 165 | 8.0 | 14.5 | 0.00 | 0.08 | 0.08 | 75 | 1013.0 |
| 20260508160559 | 20 | 198 | 8.0 | 14.5 | 0.00 | 0.08 | 0.08 | 75 | 1013.0 |
| 20260508160459 | 20 | 198 | 8.0 | 14.5 | 0.00 | 0.08 | 0.08 | 75 | 1013.1 |
| 20260508160259 | 20 | 205 | 8.0 | 16.1 | 0.00 | 0.08 | 0.08 | 76 | 1013.1 |
| 20260508160059 | 20 | 181 | 4.8 | 16.1 | 0.00 | 0.08 | 0.08 | 76 | 1012.6 |
| 20260508160000 | 20 | 196 | 8.0 | 16.1 | 0.00 | 0.08 | 0.08 | 76 | 1013.2 |
| 20260508155859 | 20 | 251 | 8.0 | 16.1 | 0.00 | 0.08 | 0.08 | 77 | 1013.1 |
| 20260508155759 | 20 | 201 | 9.7 | 16.1 | 0.00 | 0.08 | 0.08 | 77 | 1013.1 |
| 20260508155659 | 20 | 197 | 8.0 | 16.1 | 0.00 | 0.08 | 0.08 | 78 | 1013.1 |
| 20260508155600 | 20 | 174 | 8.0 | 16.1 | 0.00 | 0.08 | 0.08 | 77 | 1013.1 |
| 20260508155458 | 19 | 199 | 8.0 | 14.5 | 0.00 | 0.08 | 0.08 | 81 | 1013.1 |
| 20260508155359 | 19 | 183 | 6.4 | 14.5 | 0.00 | 0.08 | 0.08 | 81 | 1013.1 |
| 20260508155259 | 19 | 157 | 4.8 | 14.5 | 0.00 | 0.08 | 0.08 | 80 | 1013.1 |
| 20260508155158 | 19 | 193 | 6.4 | 14.5 | 0.00 | 0.08 | 0.08 | 80 | 1013.1 |
| 20260508155059 | 19 | 182 | 8.0 | 14.5 | 0.00 | 0.08 | 0.08 | 81 | 1013.1 |
| 20260508154959 | 19 | 180 | 8.0 | 14.5 | 0.00 | 0.08 | 0.08 | 82 | 1013.1 |
| 20260508154859 | 19 | 182 | 6.4 | 14.5 | 0.00 | 0.08 | 0.08 | 82 | 1013.1 |
| 20260508154759 | 19 | 193 | 6.4 | 14.5 | 0.00 | 0.08 | 0.08 | 82 | 1013.1 |
| 20260508154600 | 18 | 182 | 8.0 | 14.5 | 0.00 | 0.08 | 0.08 | 80 | 1013.1 |
| 20260508154459 | 18 | 159 | 8.0 | 14.5 | 0.00 | 0.08 | 0.08 | 80 | 1013.1 |
| 20260508154359 | 18 | 186 | 9.7 | 14.5 | 0.00 | 0.08 | 0.08 | 81 | 1013.2 |
| 20260508154259 | 18 | 186 | 9.7 | 14.5 | 0.00 | 0.08 | 0.08 | 81 | 1013.2 |
| 20260508154158 | 18 | 185 | 8.0 | 14.5 | 0.00 | 0.08 | 0.08 | 82 | 1013.3 |
| 20260508154058 | 18 | 175 | 6.4 | 12.9 | 0.00 | 0.08 | 0.08 | 82 | 1013.2 |
| 20260508153958 | 18 | 184 | 4.8 | 12.9 | 0.00 | 0.08 | 0.08 | 82 | 1013.3 |
| 20260508153858 | 18 | 202 | 6.4 | 12.9 | 0.00 | 0.08 | 0.08 | 82 | 1013.3 |
| 20260508153659 | 18 | 182 | 6.4 | 12.9 | 0.00 | 0.08 | 0.08 | 83 | 1013.4 |
| 20260508153558 | 18 | 236 | 4.8 | 12.9 | 0.00 | 0.08 | 0.08 | 83 | 1013.4 |
| 20260508153358 | 18 | 191 | 8.0 | 12.9 | 0.00 | 0.08 | 0.08 | 82 | 1013.4 |
| 20260508153158 | 18 | 191 | 4.8 | 11.3 | 0.00 | 0.08 | 0.08 | 82 | 1013.4 |
| 20260508153059 | 18 | 178 | 4.8 | 11.3 | 0.00 | 0.08 | 0.08 | 85 | 1013.3 |
| 20260508152858 | 18 | 205 | 3.2 | 16.1 | 0.00 | 0.08 | 0.08 | 86 | 1013.2 |
| 20260508152759 | 18 | 171 | 3.2 | 16.1 | 0.00 | 0.08 | 0.08 | 84 | 1013.2 |
| 20260508152658 | 18 | 144 | 4.8 | 16.1 | 0.00 | 0.08 | 0.08 | 84 | 1013.1 |
| 20260508152558 | 18 | 159 | 4.8 | 16.1 | 0.00 | 0.08 | 0.08 | 83 | 1013.1 |
| 20260508152458 | 18 | 167 | 4.8 | 16.1 | 0.00 | 0.08 | 0.08 | 84 | 1013.1 |
| 20260508152358 | 18 | 137 | 4.8 | 16.1 | 0.00 | 0.08 | 0.08 | 84 | 1013.2 |
| 20260508152258 | 18 | 182 | 8.0 | 16.1 | 0.00 | 0.08 | 0.08 | 83 | 1013.3 |
| 20260508152159 | 18 | 160 | 8.0 | 19.3 | 0.00 | 0.08 | 0.08 | 83 | 1013.3 |
| 20260508152059 | 18 | 188 | 8.0 | 19.3 | 0.00 | 0.08 | 0.08 | 85 | 1013.4 |
| 20260508151858 | 18 | 183 | 8.0 | 19.3 | 0.00 | 0.08 | 0.08 | 84 | 1013.3 |
| 20260508151558 | 18 | 144 | 8.0 | 19.3 | 0.00 | 0.08 | 0.08 | 83 | 1012.8 |
| 20260508151458 | 18 | 202 | 11.3 | 19.3 | 0.00 | 0.08 | 0.08 | 83 | 1013.4 |
| 20260508151358 | 18 | 180 | 11.3 | 19.3 | 0.00 | 0.08 | 0.08 | 83 | 1013.4 |
| 20260508151258 | 18 | 173 | 9.7 | 14.5 | 0.00 | 0.08 | 0.08 | 85 | 1013.3 |
| 20260508151158 | 18 | 178 | 8.0 | 14.5 | 0.00 | 0.08 | 0.08 | 87 | 1013.4 |
| 20260508151059 | 18 | 198 | 6.4 | 11.3 | 0.00 | 0.08 | 0.08 | 87 | 1013.4 |
| 20260508150859 | 17 | 165 | 4.8 | 11.3 | 0.00 | 0.08 | 0.08 | 86 | 1013.4 |
| 20260508150657 | 17 | 158 | 6.4 | 11.3 | 0.00 | 0.08 | 0.08 | 85 | 1013.4 |
| 20260508150557 | 17 | 182 | 6.4 | 14.5 | 0.00 | 0.08 | 0.08 | 85 | 1013.5 |
| 20260508150458 | 17 | 148 | 4.8 | 14.5 | 0.00 | 0.08 | 0.08 | 85 | 1013.5 |
| 20260508150358 | 17 | 194 | 3.2 | 14.5 | 0.00 | 0.08 | 0.08 | 85 | 1013.6 |
| 20260508150258 | 17 | 148 | 1.6 | 11.3 | 0.00 | 0.08 | 0.08 | 85 | 1013.6 |
| 20260508150158 | 17 | 182 | 1.6 | 11.3 | 0.00 | 0.08 | 0.08 | 85 | 1013.8 |
| 20260508150100 | 17 | 237 | 0.0 | 11.3 | 0.00 | 0.08 | 0.08 | 85 | 1013.2 |
| 20260508150059 | 17 | 237 | 1.6 | 11.3 | 0.00 | 0.08 | 0.08 | 85 | 1013.8 |
| 20260508145958 | 17 | 237 | 1.6 | 11.3 | 0.00 | 0.08 | 0.08 | 85 | 1013.8 |
| 20260508145857 | 17 | 238 | 4.8 | 11.3 | 0.00 | 0.08 | 0.08 | 84 | 1013.8 |
| 20260508145758 | 17 | 196 | 6.4 | 11.3 | 0.00 | 0.08 | 0.08 | 85 | 1013.8 |
| 20260508145700 | 17 | 182 | 6.4 | 11.3 | 0.00 | 0.08 | 0.08 | 85 | 1013.8 |
| 20260508145558 | 17 | 206 | 4.8 | 11.3 | 0.00 | 0.08 | 0.08 | 84 | 1013.9 |
| 20260508145457 | 17 | 184 | 4.8 | 12.9 | 0.00 | 0.08 | 0.08 | 85 | 1013.8 |
| 20260508145357 | 17 | 167 | 4.8 | 12.9 | 0.00 | 0.08 | 0.08 | 85 | 1013.8 |
| 20260508145158 | 17 | 205 | 3.2 | 12.9 | 0.00 | 0.08 | 0.08 | 86 | 1013.8 |
| 20260508145057 | 17 | 193 | 3.2 | 12.9 | 0.00 | 0.08 | 0.08 | 86 | 1013.8 |
| 20260508144958 | 17 | 190 | 4.8 | 12.9 | 0.00 | 0.08 | 0.08 | 86 | 1013.8 |
| 20260508144858 | 17 | 184 | 4.8 | 12.9 | 0.00 | 0.08 | 0.08 | 85 | 1013.8 |
| 20260508144759 | 17 | 204 | 4.8 | 12.9 | 0.00 | 0.08 | 0.08 | 86 | 1013.7 |
| 20260508144659 | 17 | 191 | 4.8 | 12.9 | 0.00 | 0.08 | 0.08 | 86 | 1013.8 |
| 20260508144604 | 17 | 169 | 4.8 | 12.9 | 0.00 | 0.08 | 0.08 | 85 | 1013.3 |
| 20260508144559 | 17 | 169 | 4.8 | 12.9 | 0.00 | 0.08 | 0.08 | 85 | 1013.8 |
| 20260508144457 | 17 | 197 | 4.8 | 12.9 | 0.00 | 0.08 | 0.08 | 86 | 1013.8 |
| 20260508144358 | 17 | 245 | 6.4 | 12.9 | 0.00 | 0.08 | 0.08 | 86 | 1013.8 |
| 20260508144258 | 17 | 190 | 6.4 | 12.9 | 0.00 | 0.08 | 0.08 | 86 | 1013.8 |
| 20260508144158 | 17 | 200 | 6.4 | 12.9 | 0.00 | 0.08 | 0.08 | 87 | 1013.6 |
| 20260508143958 | 17 | 184 | 6.4 | 12.9 | 0.00 | 0.08 | 0.08 | 86 | 1013.5 |
| 20260508143859 | 17 | 179 | 4.8 | 12.9 | 0.00 | 0.08 | 0.08 | 85 | 1013.5 |
| 20260508143759 | 17 | 197 | 6.4 | 12.9 | 0.00 | 0.08 | 0.08 | 85 | 1013.5 |
| 20260508143658 | 17 | 217 | 8.0 | 12.9 | 0.00 | 0.08 | 0.08 | 85 | 1013.6 |
| 20260508143558 | 17 | 176 | 8.0 | 12.9 | 0.00 | 0.08 | 0.08 | 85 | 1013.6 |
| 20260508143500 | 17 | 178 | 9.7 | 14.5 | 0.00 | 0.08 | 0.08 | 85 | 1013.6 |
| 20260508143359 | 17 | 198 | 9.7 | 14.5 | 0.00 | 0.08 | 0.08 | 86 | 1013.7 |
| 20260508143258 | 17 | 157 | 9.7 | 14.5 | 0.00 | 0.08 | 0.08 | 86 | 1013.6 |
| 20260508143059 | 17 | 179 | 6.4 | 14.5 | 0.03 | 0.08 | 0.08 | 88 | 1013.6 |
| 20260508142959 | 17 | 165 | 6.4 | 14.5 | 0.03 | 0.08 | 0.08 | 88 | 1013.6 |
| 20260508142859 | 17 | 170 | 6.4 | 14.5 | 0.03 | 0.08 | 0.08 | 87 | 1013.6 |
| 20260508142759 | 17 | 157 | 8.0 | 14.5 | 0.03 | 0.08 | 0.08 | 90 | 1013.5 |
| 20260508142459 | 17 | 145 | 3.2 | 14.5 | 0.03 | 0.08 | 0.08 | 91 | 1013.5 |
| 20260508142359 | 17 | 148 | 3.2 | 14.5 | 0.03 | 0.08 | 0.08 | 91 | 1013.4 |
| 20260508142158 | 17 | 173 | 8.0 | 16.1 | 0.03 | 0.08 | 0.08 | 90 | 1013.4 |
| 20260508142058 | 16 | 192 | 9.7 | 16.1 | 0.03 | 0.08 | 0.08 | 90 | 1013.4 |
| 20260508141957 | 16 | 169 | 9.7 | 16.1 | 0.03 | 0.08 | 0.08 | 90 | 1013.3 |
| 20260508141859 | 16 | 175 | 8.0 | 14.5 | 0.03 | 0.08 | 0.08 | 91 | 1013.3 |
| 20260508141759 | 16 | 180 | 6.4 | 14.5 | 0.03 | 0.08 | 0.08 | 91 | 1013.3 |
| 20260508141659 | 16 | 187 | 8.0 | 14.5 | 0.03 | 0.08 | 0.08 | 91 | 1013.3 |
| 20260508141604 | 16 | 151 | 6.4 | 14.5 | 0.03 | 0.08 | 0.08 | 90 | 1012.8 |
| 20260508141559 | 16 | 151 | 8.0 | 14.5 | 0.03 | 0.08 | 0.08 | 90 | 1013.3 |
| 20260508141459 | 16 | 162 | 9.7 | 16.1 | 0.03 | 0.08 | 0.08 | 90 | 1013.3 |
| 20260508141359 | 16 | 178 | 8.0 | 16.1 | 0.03 | 0.08 | 0.08 | 90 | 1013.5 |
| 20260508141259 | 16 | 180 | 9.7 | 16.1 | 0.03 | 0.08 | 0.08 | 90 | 1013.5 |
| 20260508141157 | 16 | 156 | 9.7 | 14.5 | 0.03 | 0.08 | 0.08 | 91 | 1013.5 |
| 20260508141058 | 16 | 186 | 9.7 | 14.5 | 0.03 | 0.08 | 0.08 | 91 | 1013.5 |
| 20260508140959 | 16 | 172 | 9.7 | 14.5 | 0.03 | 0.08 | 0.08 | 91 | 1013.5 |
| 20260508140857 | 16 | 142 | 8.0 | 12.9 | 0.03 | 0.08 | 0.08 | 93 | 1013.6 |
| 20260508140800 | 16 | 170 | 8.0 | 12.9 | 0.03 | 0.08 | 0.08 | 93 | 1013.6 |
| 20260508140700 | 16 | 161 | 6.4 | 9.7 | 0.03 | 0.08 | 0.08 | 93 | 1013.6 |
| 20260508140558 | 16 | 176 | 8.0 | 9.7 | 0.03 | 0.08 | 0.08 | 92 | 1013.6 |
| 20260508140458 | 16 | 157 | 8.0 | 9.7 | 0.05 | 0.08 | 0.08 | 92 | 1013.7 |
| 20260508140358 | 16 | 157 | 8.0 | 11.3 | 0.05 | 0.08 | 0.08 | 92 | 1013.7 |
| 20260508140159 | 16 | 163 | 6.4 | 9.7 | 0.05 | 0.08 | 0.08 | 93 | 1013.9 |
| 20260508140059 | 16 | 171 | 6.4 | 9.7 | 0.05 | 0.08 | 0.08 | 94 | 1013.9 |
| 20260508135959 | 16 | 159 | 6.4 | 9.7 | 0.05 | 0.08 | 0.08 | 94 | 1013.8 |
| 20260508135758 | 15 | 169 | 3.2 | 9.7 | 0.05 | 0.08 | 0.08 | 94 | 1013.8 |
| 20260508135658 | 15 | 161 | 1.6 | 8.0 | 0.05 | 0.08 | 0.08 | 94 | 1013.8 |
| 20260508135559 | 15 | 192 | 1.6 | 3.2 | 0.05 | 0.08 | 0.08 | 93 | 1013.9 |
| 20260508135359 | 15 | 225 | 0.0 | 3.2 | 0.05 | 0.08 | 0.08 | 93 | 1014.2 |
| 20260508135258 | 15 | 232 | 0.0 | 3.2 | 0.05 | 0.08 | 0.08 | 93 | 1014.3 |
| 20260508135158 | 15 | 232 | 0.0 | 3.2 | 0.05 | 0.08 | 0.08 | 93 | 1014.3 |
| 20260508135059 | 15 | 232 | 0.0 | 3.2 | 0.05 | 0.08 | 0.08 | 92 | 1014.4 |
| 20260508135000 | 15 | 231 | 0.0 | 3.2 | 0.05 | 0.08 | 0.08 | 92 | 1014.4 |
| 20260508134858 | 15 | 231 | 0.0 | 3.2 | 0.05 | 0.08 | 0.08 | 93 | 1014.4 |
| 20260508134759 | 15 | 231 | 0.0 | 3.2 | 0.05 | 0.08 | 0.08 | 93 | 1014.4 |
| 20260508134657 | 15 | 231 | 0.0 | 3.2 | 0.05 | 0.08 | 0.08 | 93 | 1014.4 |
| 20260508134603 | 15 | 231 | 0.0 | 3.2 | 0.05 | 0.08 | 0.08 | 93 | 1014.0 |
| 20260508134559 | 15 | 231 | 0.0 | 3.2 | 0.05 | 0.08 | 0.08 | 93 | 1014.4 |
| 20260508134359 | 15 | 231 | 0.0 | 3.2 | 0.05 | 0.08 | 0.08 | 93 | 1014.4 |
| 20260508134257 | 15 | 231 | 0.0 | 3.2 | 0.08 | 0.08 | 0.08 | 93 | 1014.3 |
| 20260508134058 | 15 | 231 | 0.0 | 3.2 | 0.08 | 0.08 | 0.08 | 93 | 1014.2 |
| 20260508133858 | 15 | 231 | 0.0 | 3.2 | 0.08 | 0.08 | 0.08 | 93 | 1014.1 |
| 20260508133758 | 15 | 231 | 0.0 | 3.2 | 0.08 | 0.08 | 0.08 | 93 | 1014.1 |
| 20260508133659 | 15 | 231 | 0.0 | 3.2 | 0.08 | 0.08 | 0.08 | 93 | 1014.1 |
| 20260508133459 | 15 | 247 | 0.0 | 3.2 | 0.08 | 0.08 | 0.08 | 92 | 1014.4 |
| 20260508133358 | 14 | 247 | 0.0 | 3.2 | 0.08 | 0.08 | 0.08 | 92 | 1014.5 |
| 20260508133258 | 14 | 247 | 0.0 | 3.2 | 0.08 | 0.08 | 0.08 | 92 | 1014.6 |
| 20260508133159 | 14 | 247 | 0.0 | 3.2 | 0.05 | 0.05 | 0.05 | 92 | 1014.6 |
| 20260508133105 | 14 | 247 | 0.0 | 3.2 | 0.05 | 0.05 | 0.05 | 93 | 1014.2 |
| 20260508132959 | 14 | 247 | 0.0 | 3.2 | 0.05 | 0.05 | 0.05 | 93 | 1014.7 |
| 20260508132700 | 14 | 161 | 1.6 | 3.2 | 0.05 | 0.05 | 0.05 | 93 | 1014.7 |
| 20260508132559 | 14 | 130 | 0.0 | 3.2 | 0.05 | 0.05 | 0.05 | 93 | 1014.6 |
| 20260508132459 | 14 | 130 | 0.0 | 3.2 | 0.05 | 0.05 | 0.05 | 93 | 1014.5 |
| 20260508132359 | 14 | 130 | 0.0 | 3.2 | 0.05 | 0.05 | 0.05 | 93 | 1014.4 |
| 20260508132300 | 14 | 130 | 0.0 | 3.2 | 0.05 | 0.05 | 0.05 | 93 | 1014.3 |
| 20260508132058 | 14 | 130 | 0.0 | 3.2 | 0.05 | 0.05 | 0.05 | 93 | 1014.0 |
| 20260508131959 | 14 | 130 | 0.0 | 3.2 | 0.05 | 0.05 | 0.05 | 93 | 1014.0 |
| 20260508131859 | 14 | 130 | 0.0 | 3.2 | 0.05 | 0.05 | 0.05 | 93 | 1014.0 |
| 20260508131758 | 14 | 130 | 0.0 | 3.2 | 0.05 | 0.05 | 0.05 | 93 | 1013.9 |
| 20260508131658 | 14 | 130 | 0.0 | 3.2 | 0.05 | 0.05 | 0.05 | 93 | 1014.0 |
| 20260508131559 | 14 | 130 | 0.0 | 3.2 | 0.05 | 0.05 | 0.05 | 93 | 1014.0 |
| 20260508131458 | 14 | 130 | 0.0 | 4.8 | 0.05 | 0.05 | 0.05 | 93 | 1014.1 |
| 20260508131358 | 14 | 130 | 0.0 | 4.8 | 0.05 | 0.05 | 0.05 | 93 | 1014.1 |
| 20260508131259 | 14 | 130 | 0.0 | 4.8 | 0.05 | 0.05 | 0.05 | 93 | 1014.1 |
| 20260508131158 | 14 | 122 | 0.0 | 4.8 | 0.05 | 0.05 | 0.05 | 93 | 1014.1 |
| 20260508131059 | 14 | 122 | 0.0 | 4.8 | 0.05 | 0.05 | 0.05 | 93 | 1014.0 |
| 20260508130958 | 14 | 117 | 0.0 | 4.8 | 0.05 | 0.05 | 0.05 | 93 | 1014.0 |
| 20260508130859 | 14 | 117 | 1.6 | 4.8 | 0.05 | 0.05 | 0.05 | 93 | 1013.9 |
| 20260508130758 | 14 | 121 | 1.6 | 4.8 | 0.05 | 0.05 | 0.05 | 93 | 1013.9 |
| 20260508130658 | 14 | 109 | 3.2 | 4.8 | 0.05 | 0.05 | 0.05 | 93 | 1013.9 |
| 20260508130558 | 14 | 153 | 3.2 | 3.2 | 0.05 | 0.05 | 0.05 | 93 | 1014.1 |
| 20260508130458 | 14 | 153 | 3.2 | 3.2 | 0.03 | 0.03 | 0.03 | 93 | 1014.2 |
| 20260508130358 | 14 | 157 | 1.6 | 3.2 | 0.03 | 0.03 | 0.03 | 93 | 1014.2 |
| 20260508130258 | 14 | 157 | 0.0 | 3.2 | 0.03 | 0.03 | 0.03 | 93 | 1014.3 |
| 20260508130109 | 14 | 159 | 0.0 | 3.2 | 0.03 | 0.03 | 0.03 | 93 | 1013.8 |
| 20260508130058 | 14 | 159 | 0.0 | 3.2 | 0.03 | 0.03 | 0.03 | 93 | 1014.3 |
| 20260508130000 | 14 | 159 | 0.0 | 3.2 | 0.03 | 0.03 | 0.03 | 93 | 1014.3 |
| 20260508125759 | 14 | 159 | 1.6 | 3.2 | 0.03 | 0.03 | 0.03 | 93 | 1014.3 |
| 20260508125658 | 14 | 159 | 0.0 | 3.2 | 0.03 | 0.03 | 0.03 | 93 | 1014.2 |
| 20260508125559 | 14 | 159 | 0.0 | 3.2 | 0.03 | 0.03 | 0.03 | 93 | 1014.2 |
| 20260508125459 | 14 | 159 | 0.0 | 4.8 | 0.03 | 0.03 | 0.03 | 93 | 1014.2 |
| 20260508125258 | 14 | 159 | 0.0 | 4.8 | 0.03 | 0.03 | 0.03 | 93 | 1014.1 |
| 20260508125159 | 14 | 182 | 0.0 | 4.8 | 0.03 | 0.03 | 0.03 | 93 | 1014.1 |
| 20260508125059 | 14 | 184 | 0.0 | 4.8 | 0.03 | 0.03 | 0.03 | 93 | 1014.1 |
| 20260508124959 | 14 | 184 | 0.0 | 4.8 | 0.03 | 0.03 | 0.03 | 93 | 1014.0 |
| 20260508124758 | 14 | 184 | 1.6 | 4.8 | 0.03 | 0.03 | 0.03 | 93 | 1014.0 |
| 20260508124659 | 14 | 184 | 1.6 | 6.4 | 0.03 | 0.03 | 0.03 | 93 | 1014.0 |
| 20260508124558 | 13 | 184 | 1.6 | 6.4 | 0.03 | 0.03 | 0.03 | 93 | 1014.1 |
| 20260508124458 | 13 | 205 | 1.6 | 6.4 | 0.03 | 0.03 | 0.03 | 93 | 1014.1 |
| 20260508124358 | 13 | 206 | 1.6 | 6.4 | 0.03 | 0.03 | 0.03 | 93 | 1014.1 |
| 20260508124259 | 13 | 159 | 1.6 | 6.4 | 0.00 | 0.00 | 0.00 | 93 | 1014.0 |
| 20260508124158 | 13 | 159 | 1.6 | 6.4 | 0.00 | 0.00 | 0.00 | 93 | 1013.9 |
| 20260508124058 | 13 | 159 | 3.2 | 6.4 | 0.00 | 0.00 | 0.00 | 93 | 1013.9 |
| 20260508123958 | 13 | 159 | 3.2 | 6.4 | 0.00 | 0.00 | 0.00 | 93 | 1013.8 |
| 20260508123858 | 13 | 147 | 3.2 | 6.4 | 0.00 | 0.00 | 0.00 | 93 | 1013.8 |
| 20260508123800 | 13 | 155 | 3.2 | 6.4 | 0.00 | 0.00 | 0.00 | 93 | 1013.7 |
| 20260508123659 | 13 | 146 | 3.2 | 4.8 | 0.00 | 0.00 | 0.00 | 93 | 1013.8 |
| 20260508123558 | 13 | 123 | 1.6 | 3.2 | 0.00 | 0.00 | 0.00 | 93 | 1013.8 |
| 20260508123458 | 13 | 119 | 1.6 | 3.2 | 0.00 | 0.00 | 0.00 | 93 | 1013.7 |
| 20260508123359 | 13 | 119 | 1.6 | 3.2 | 0.00 | 0.00 | 0.00 | 93 | 1013.6 |
| 20260508123300 | 13 | 123 | 1.6 | 3.2 | 0.00 | 0.00 | 0.00 | 93 | 1013.8 |
| 20260508123058 | 13 | 137 | 0.0 | 3.2 | 0.00 | 0.00 | 0.00 | 93 | 1014.1 |
| 20260508123000 | 13 | 138 | 0.0 | 3.2 | 0.00 | 0.00 | 0.00 | 93 | 1014.3 |
| 20260508122900 | 13 | 138 | 1.6 | 3.2 | 0.00 | 0.00 | 0.00 | 93 | 1014.3 |
| 20260508122759 | 13 | 137 | 0.0 | 4.8 | 0.00 | 0.00 | 0.00 | 93 | 1014.4 |
| 20260508122558 | 13 | 136 | 0.0 | 4.8 | 0.00 | 0.00 | 0.00 | 93 | 1014.4 |
| 20260508122458 | 13 | 135 | 0.0 | 4.8 | 0.00 | 0.00 | 0.00 | 93 | 1014.4 |
| 20260508122358 | 13 | 136 | 0.0 | 4.8 | 0.00 | 0.00 | 0.00 | 93 | 1014.4 |
| 20260508122258 | 13 | 136 | 0.0 | 4.8 | 0.00 | 0.00 | 0.00 | 93 | 1014.5 |
| 20260508122158 | 13 | 136 | 0.0 | 4.8 | 0.00 | 0.00 | 0.00 | 93 | 1014.4 |
| 20260508122059 | 13 | 136 | 1.6 | 4.8 | 0.00 | 0.00 | 0.00 | 93 | 1014.4 |
| 20260508121858 | 13 | 136 | 3.2 | 4.8 | 0.00 | 0.00 | 0.00 | 93 | 1014.3 |
| 20260508121800 | 13 | 163 | 3.2 | 4.8 | 0.00 | 0.00 | 0.00 | 93 | 1014.4 |
| 20260508121557 | 13 | 184 | 0.0 | 4.8 | 0.00 | 0.00 | 0.00 | 93 | 1014.2 |
| 20260508121458 | 13 | 182 | 0.0 | 3.2 | 0.00 | 0.00 | 0.00 | 93 | 1014.7 |
| 20260508121359 | 13 | 182 | 0.0 | 0.0 | 0.00 | 0.00 | 0.00 | 93 | 1014.7 |
| 20260508121258 | 13 | 182 | 0.0 | 0.0 | 0.00 | 0.00 | 0.00 | 93 | 1014.8 |
| 20260508121159 | 13 | 182 | 0.0 | 0.0 | 0.00 | 0.00 | 0.00 | 93 | 1014.8 |
| 20260508120959 | 13 | 182 | 0.0 | 0.0 | 0.00 | 0.00 | 0.00 | 93 | 1014.6 |
| 20260508120858 | 13 | 182 | 0.0 | 1.6 | 0.00 | 0.00 | 0.00 | 93 | 1014.6 |
| 20260508120758 | 13 | 182 | 0.0 | 1.6 | 0.00 | 0.00 | 0.00 | 93 | 1014.5 |
| 20260508120658 | 13 | 182 | 0.0 | 3.2 | 0.00 | 0.00 | 0.00 | 93 | 1014.5 |
| 20260508120458 | 13 | 182 | 0.0 | 3.2 | 0.00 | 0.00 | 0.00 | 93 | 1014.4 |
| 20260508120358 | 13 | 182 | 0.0 | 3.2 | 0.00 | 0.00 | 0.00 | 93 | 1014.4 |
| 20260508120258 | 13 | 182 | 0.0 | 3.2 | 0.00 | 0.00 | 0.00 | 93 | 1014.3 |
| 20260508120159 | 13 | 182 | 0.0 | 3.2 | 0.00 | 0.00 | 0.00 | 93 | 1014.3 |
| 20260508120100 | 13 | 182 | 0.0 | 3.2 | 0.00 | 0.00 | 0.00 | 93 | 1013.7 |
| 20260508115958 | 13 | 182 | 0.0 | 3.2 | 0.00 | 0.00 | 0.00 | 93 | 1014.1 |
| 20260508115857 | 13 | 183 | 0.0 | 3.2 | 0.00 | 0.00 | 0.00 | 93 | 1014.1 |
| 20260508115658 | 13 | 183 | 0.0 | 3.2 | 0.00 | 0.00 | 0.00 | 93 | 1014.0 |
| 20260508115500 | 13 | 183 | 0.0 | 3.2 | 0.00 | 0.00 | 0.00 | 93 | 1014.1 |
| 20260508115357 | 13 | 184 | 0.0 | 3.2 | 0.00 | 0.00 | 0.00 | 93 | 1014.1 |
| 20260508115257 | 13 | 184 | 0.0 | 3.2 | 0.00 | 0.00 | 0.00 | 93 | 1014.1 |
| 20260508115157 | 13 | 184 | 1.6 | 3.2 | 0.00 | 0.00 | 0.00 | 93 | 1014.2 |
| 20260508115057 | 13 | 184 | 1.6 | 3.2 | 0.00 | 0.00 | 0.00 | 93 | 1014.2 |
| 20260508114957 | 13 | 184 | 1.6 | 3.2 | 0.00 | 0.00 | 0.00 | 93 | 1014.2 |
| 20260508114858 | 13 | 184 | 1.6 | 3.2 | 0.00 | 0.00 | 0.00 | 93 | 1014.2 |
| 20260508114757 | 13 | 184 | 1.6 | 3.2 | 0.00 | 0.00 | 0.00 | 93 | 1014.1 |
| 20260508114656 | 13 | 184 | 1.6 | 3.2 | 0.00 | 0.00 | 0.00 | 93 | 1014.1 |
| 20260508114558 | 13 | 184 | 1.6 | 3.2 | 0.00 | 0.00 | 0.00 | 93 | 1014.2 |
| 20260508114556 | 13 | 184 | 0.0 | 3.2 | 0.00 | 0.00 | 0.00 | 93 | 1013.8 |
| 20260508114457 | 13 | 184 | 0.0 | 3.2 | 0.00 | 0.00 | 0.00 | 93 | 1014.2 |
| 20260508114357 | 13 | 184 | 0.0 | 3.2 | 0.00 | 0.00 | 0.00 | 93 | 1014.1 |
| 20260508114257 | 13 | 184 | 0.0 | 3.2 | 0.00 | 0.00 | 0.00 | 93 | 1014.1 |
| 20260508114157 | 13 | 184 | 0.0 | 3.2 | 0.00 | 0.00 | 0.00 | 93 | 1014.1 |
| 20260508113957 | 13 | 184 | 0.0 | 0.0 | 0.00 | 0.00 | 0.00 | 93 | 1014.1 |
| 20260508113857 | 12 | 184 | 0.0 | 0.0 | 0.00 | 0.00 | 0.00 | 93 | 1014.1 |
| 20260508113757 | 12 | 184 | 0.0 | 0.0 | 0.00 | 0.00 | 0.00 | 93 | 1014.0 |
| 20260508113657 | 12 | 184 | 0.0 | 0.0 | 0.00 | 0.00 | 0.00 | 93 | 1014.0 |
| 20260508113557 | 12 | 184 | 0.0 | 0.0 | 0.00 | 0.00 | 0.00 | 93 | 1014.0 |
| 20260508113458 | 12 | 184 | 0.0 | 0.0 | 0.00 | 0.00 | 0.00 | 93 | 1013.9 |
| 20260508113257 | 12 | 184 | 0.0 | 0.0 | 0.00 | 0.00 | 0.00 | 92 | 1013.8 |
| 20260508113156 | 12 | 184 | 0.0 | 0.0 | 0.00 | 0.00 | 0.00 | 92 | 1013.8 |
| 20260508113059 | 12 | 184 | 0.0 | 0.0 | 0.00 | 0.00 | 0.00 | 92 | 1013.3 |
| 20260508112857 | 12 | 184 | 0.0 | 0.0 | 0.00 | 0.00 | 0.00 | 92 | 1013.7 |
| 20260508112757 | 12 | 184 | 0.0 | 0.0 | 0.00 | 0.00 | 0.00 | 92 | 1013.6 |
| 20260508112658 | 12 | 184 | 0.0 | 1.6 | 0.00 | 0.00 | 0.00 | 92 | 1013.5 |
| 20260508112457 | 12 | 184 | 0.0 | 1.6 | 0.00 | 0.00 | 0.00 | 92 | 1013.5 |
| 20260508112357 | 12 | 184 | 0.0 | 1.6 | 0.00 | 0.00 | 0.00 | 92 | 1013.5 |
| 20260508112256 | 12 | 184 | 0.0 | 1.6 | 0.00 | 0.00 | 0.00 | 92 | 1013.6 |
| 20260508112156 | 12 | 184 | 0.0 | 1.6 | 0.00 | 0.00 | 0.00 | 92 | 1013.5 |
| 20260508112056 | 12 | 184 | 0.0 | 1.6 | 0.00 | 0.00 | 0.00 | 92 | 1013.6 |
| 20260508111958 | 12 | 184 | 0.0 | 3.2 | 0.00 | 0.00 | 0.00 | 92 | 1013.5 |
| 20260508111557 | 12 | 184 | 0.0 | 3.2 | 0.00 | 0.00 | 0.00 | 92 | 1013.1 |
| 20260508111457 | 12 | 185 | 1.6 | 3.2 | 0.00 | 0.00 | 0.00 | 92 | 1013.6 |
| 20260508111357 | 12 | 185 | 1.6 | 3.2 | 0.00 | 0.00 | 0.00 | 92 | 1013.8 |
| 20260508111157 | 12 | 185 | 1.6 | 3.2 | 0.00 | 0.00 | 0.00 | 92 | 1013.9 |
| 20260508111057 | 12 | 185 | 1.6 | 3.2 | 0.00 | 0.00 | 0.00 | 92 | 1013.9 |
| 20260508110958 | 12 | 185 | 1.6 | 3.2 | 0.00 | 0.00 | 0.00 | 92 | 1013.8 |
| 20260508110857 | 12 | 185 | 0.0 | 3.2 | 0.00 | 0.00 | 0.00 | 92 | 1013.8 |
| 20260508110757 | 12 | 185 | 0.0 | 4.8 | 0.00 | 0.00 | 0.00 | 92 | 1013.8 |
| 20260508110657 | 12 | 185 | 0.0 | 4.8 | 0.00 | 0.00 | 0.00 | 92 | 1013.8 |
| 20260508110557 | 12 | 185 | 0.0 | 4.8 | 0.00 | 0.00 | 0.00 | 92 | 1013.8 |
| 20260508110456 | 12 | 185 | 0.0 | 4.8 | 0.00 | 0.00 | 0.00 | 92 | 1013.8 |
| 20260508110358 | 12 | 185 | 0.0 | 4.8 | 0.00 | 0.00 | 0.00 | 92 | 1013.8 |
| 20260508110257 | 12 | 185 | 0.0 | 4.8 | 0.00 | 0.00 | 0.00 | 92 | 1013.7 |
| 20260508110123 | 12 | 185 | 0.0 | 4.8 | 0.00 | 0.00 | 0.00 | 92 | 1013.3 |
| 20260508110057 | 12 | 185 | 1.6 | 4.8 | 0.00 | 0.00 | 0.00 | 92 | 1013.8 |
| 20260508105958 | 12 | 185 | 1.6 | 4.8 | 0.00 | 0.00 | 0.00 | 92 | 1013.7 |
| 20260508105857 | 12 | 185 | 1.6 | 4.8 | 0.00 | 0.00 | 0.00 | 92 | 1013.7 |
| 20260508105758 | 12 | 185 | 1.6 | 4.8 | 0.00 | 0.00 | 0.00 | 92 | 1013.7 |
| 20260508105657 | 12 | 182 | 1.6 | 3.2 | 0.00 | 0.00 | 0.00 | 92 | 1013.7 |
| 20260508105556 | 12 | 182 | 1.6 | 3.2 | 0.00 | 0.00 | 0.00 | 92 | 1013.7 |
| 20260508105457 | 12 | 182 | 1.6 | 3.2 | 0.00 | 0.00 | 0.00 | 91 | 1013.6 |
| 20260508105357 | 12 | 182 | 1.6 | 3.2 | 0.00 | 0.00 | 0.00 | 91 | 1013.6 |
| 20260508105256 | 12 | 179 | 3.2 | 3.2 | 0.00 | 0.00 | 0.00 | 91 | 1013.4 |
| 20260508105157 | 12 | 180 | 1.6 | 3.2 | 0.00 | 0.00 | 0.00 | 91 | 1013.4 |
| 20260508105057 | 12 | 180 | 1.6 | 3.2 | 0.00 | 0.00 | 0.00 | 91 | 1013.3 |
| 20260508104957 | 12 | 182 | 1.6 | 3.2 | 0.00 | 0.00 | 0.00 | 91 | 1013.3 |
| 20260508104857 | 12 | 182 | 1.6 | 3.2 | 0.00 | 0.00 | 0.00 | 92 | 1013.4 |
| 20260508104758 | 12 | 182 | 0.0 | 3.2 | 0.00 | 0.00 | 0.00 | 92 | 1013.3 |
| 20260508104603 | 12 | 182 | 0.0 | 3.2 | 0.00 | 0.00 | 0.00 | 92 | 1013.0 |
| 20260508104557 | 12 | 182 | 0.0 | 3.2 | 0.00 | 0.00 | 0.00 | 92 | 1013.4 |
| 20260508104358 | 13 | 182 | 1.6 | 3.2 | 0.00 | 0.00 | 0.00 | 92 | 1013.5 |
| 20260508104258 | 13 | 182 | 1.6 | 3.2 | 0.00 | 0.00 | 0.00 | 92 | 1013.4 |
| 20260508104157 | 13 | 182 | 1.6 | 3.2 | 0.00 | 0.00 | 0.00 | 93 | 1013.4 |
| 20260508103958 | 12 | 191 | 0.0 | 3.2 | 0.00 | 0.00 | 0.00 | 93 | 1013.5 |
| 20260508103858 | 12 | 192 | 0.0 | 3.2 | 0.00 | 0.00 | 0.00 | 93 | 1013.6 |
| 20260508103757 | 12 | 192 | 0.0 | 3.2 | 0.00 | 0.00 | 0.00 | 93 | 1013.7 |
| 20260508103657 | 12 | 192 | 0.0 | 3.2 | 0.00 | 0.00 | 0.00 | 93 | 1013.7 |
| 20260508103557 | 12 | 192 | 0.0 | 3.2 | 0.00 | 0.00 | 0.00 | 93 | 1013.8 |
| 20260508103458 | 12 | 192 | 0.0 | 3.2 | 0.00 | 0.00 | 0.00 | 93 | 1013.9 |
| 20260508103257 | 12 | 192 | 0.0 | 0.0 | 0.00 | 0.00 | 0.00 | 93 | 1013.8 |
| 20260508103157 | 12 | 192 | 0.0 | 0.0 | 0.00 | 0.00 | 0.00 | 93 | 1013.8 |
| 20260508103058 | 12 | 192 | 0.0 | 0.0 | 0.00 | 0.00 | 0.00 | 92 | 1013.3 |
| 20260508102957 | 12 | 192 | 0.0 | 0.0 | 0.00 | 0.00 | 0.00 | 92 | 1013.7 |
| 20260508102857 | 12 | 192 | 0.0 | 0.0 | 0.00 | 0.00 | 0.00 | 92 | 1013.8 |
| 20260508102757 | 12 | 192 | 0.0 | 0.0 | 0.00 | 0.00 | 0.00 | 92 | 1013.7 |
| 20260508102657 | 12 | 192 | 0.0 | 0.0 | 0.00 | 0.00 | 0.00 | 92 | 1013.7 |
| 20260508102457 | 12 | 192 | 0.0 | 0.0 | 0.00 | 0.00 | 0.00 | 91 | 1013.5 |
| 20260508102258 | 12 | 192 | 0.0 | 0.0 | 0.00 | 0.00 | 0.00 | 91 | 1013.3 |
| 20260508102157 | 12 | 192 | 0.0 | 0.0 | 0.00 | 0.00 | 0.00 | 91 | 1013.2 |
| 20260508102057 | 12 | 192 | 0.0 | 0.0 | 0.00 | 0.00 | 0.00 | 91 | 1013.2 |
| 20260508101957 | 12 | 192 | 0.0 | 0.0 | 0.00 | 0.00 | 0.00 | 92 | 1013.2 |
| 20260508101858 | 12 | 192 | 0.0 | 0.0 | 0.00 | 0.00 | 0.00 | 92 | 1013.2 |
| 20260508101657 | 12 | 192 | 0.0 | 0.0 | 0.00 | 0.00 | 0.00 | 92 | 1013.2 |
| 20260508101558 | 12 | 192 | 0.0 | 0.0 | 0.00 | 0.00 | 0.00 | 92 | 1012.8 |
| 20260508101456 | 12 | 192 | 0.0 | 0.0 | 0.00 | 0.00 | 0.00 | 92 | 1013.2 |
| 20260508101357 | 12 | 192 | 0.0 | 0.0 | 0.00 | 0.00 | 0.00 | 92 | 1013.2 |
| 20260508100957 | 12 | 192 | 0.0 | 0.0 | 0.00 | 0.00 | 0.00 | 92 | 1013.2 |
| 20260508100858 | 12 | 192 | 0.0 | 0.0 | 0.00 | 0.00 | 0.00 | 92 | 1013.2 |
| 20260508100757 | 12 | 192 | 0.0 | 0.0 | 0.00 | 0.00 | 0.00 | 92 | 1013.2 |
| 20260508100657 | 12 | 192 | 0.0 | 0.0 | 0.00 | 0.00 | 0.00 | 92 | 1013.2 |
| 20260508100556 | 12 | 192 | 0.0 | 0.0 | 0.00 | 0.00 | 0.00 | 92 | 1013.2 |
| 20260508100457 | 12 | 192 | 0.0 | 0.0 | 0.00 | 0.00 | 0.00 | 92 | 1013.2 |
| 20260508100357 | 12 | 192 | 0.0 | 0.0 | 0.00 | 0.00 | 0.00 | 92 | 1013.2 |
| 20260508100256 | 12 | 192 | 0.0 | 0.0 | 0.00 | 0.00 | 0.00 | 92 | 1013.2 |
| 20260508100058 | 12 | 192 | 0.0 | 0.0 | 0.00 | 0.00 | 0.00 | 92 | 1012.7 |
| 20260508095959 | 12 | 192 | 0.0 | 0.0 | 0.00 | 0.00 | 0.00 | 92 | 1013.1 |
| 20260508095757 | 12 | 192 | 0.0 | 0.0 | 0.00 | 0.00 | 0.00 | 92 | 1013.1 |
| 20260508095658 | 12 | 192 | 0.0 | 0.0 | 0.00 | 0.00 | 0.00 | 91 | 1013.0 |
| 20260508095557 | 12 | 192 | 0.0 | 0.0 | 0.00 | 0.00 | 0.00 | 91 | 1013.0 |
| 20260508095457 | 12 | 192 | 0.0 | 0.0 | 0.00 | 0.00 | 0.00 | 91 | 1013.0 |
| 20260508095257 | 12 | 192 | 0.0 | 0.0 | 0.00 | 0.00 | 0.00 | 91 | 1013.0 |
| 20260508095157 | 12 | 192 | 0.0 | 0.0 | 0.00 | 0.00 | 0.00 | 91 | 1012.8 |
| 20260508095057 | 12 | 192 | 0.0 | 0.0 | 0.00 | 0.00 | 0.00 | 92 | 1012.8 |
| 20260508094957 | 12 | 192 | 0.0 | 0.0 | 0.00 | 0.00 | 0.00 | 92 | 1012.8 |
| 20260508094858 | 12 | 192 | 0.0 | 0.0 | 0.00 | 0.00 | 0.00 | 92 | 1012.7 |
| 20260508094758 | 12 | 192 | 0.0 | 0.0 | 0.00 | 0.00 | 0.00 | 92 | 1012.8 |
| 20260508094658 | 12 | 192 | 0.0 | 0.0 | 0.00 | 0.00 | 0.00 | 92 | 1012.9 |
| 20260508094558 | 12 | 192 | 0.0 | 0.0 | 0.00 | 0.00 | 0.00 | 92 | 1012.5 |
| 20260508094458 | 12 | 192 | 0.0 | 0.0 | 0.00 | 0.00 | 0.00 | 92 | 1013.1 |
| 20260508094357 | 12 | 192 | 0.0 | 0.0 | 0.00 | 0.00 | 0.00 | 92 | 1013.1 |
| 20260508094257 | 12 | 192 | 0.0 | 0.0 | 0.00 | 0.00 | 0.00 | 92 | 1013.2 |
| 20260508094157 | 12 | 192 | 0.0 | 0.0 | 0.00 | 0.00 | 0.00 | 92 | 1013.2 |
| 20260508094057 | 12 | 192 | 0.0 | 0.0 | 0.00 | 0.00 | 0.00 | 92 | 1013.2 |
| 20260508093956 | 12 | 192 | 0.0 | 0.0 | 0.00 | 0.00 | 0.00 | 92 | 1013.2 |
| 20260508093856 | 12 | 192 | 0.0 | 0.0 | 0.00 | 0.00 | 0.00 | 92 | 1013.2 |
| 20260508093758 | 12 | 192 | 0.0 | 0.0 | 0.00 | 0.00 | 0.00 | 92 | 1013.1 |
| 20260508093657 | 12 | 192 | 0.0 | 0.0 | 0.00 | 0.00 | 0.00 | 92 | 1013.1 |
| 20260508093557 | 12 | 192 | 0.0 | 0.0 | 0.00 | 0.00 | 0.00 | 92 | 1013.1 |
| 20260508093457 | 12 | 192 | 0.0 | 0.0 | 0.00 | 0.00 | 0.00 | 93 | 1013.2 |
| 20260508093357 | 12 | 192 | 0.0 | 0.0 | 0.00 | 0.00 | 0.00 | 93 | 1013.2 |
| 20260508093158 | 12 | 192 | 0.0 | 0.0 | 0.00 | 0.00 | 0.00 | 93 | 1013.3 |
| 20260508093103 | 12 | 192 | 0.0 | 0.0 | 0.00 | 0.00 | 0.00 | 93 | 1012.8 |
| 20260508093057 | 12 | 192 | 0.0 | 0.0 | 0.00 | 0.00 | 0.00 | 93 | 1013.2 |
| 20260508092958 | 12 | 192 | 0.0 | 0.0 | 0.00 | 0.00 | 0.00 | 93 | 1013.3 |
| 20260508092857 | 12 | 192 | 0.0 | 0.0 | 0.00 | 0.00 | 0.00 | 93 | 1013.3 |
| 20260508092757 | 12 | 192 | 0.0 | 0.0 | 0.00 | 0.00 | 0.00 | 93 | 1013.3 |
| 20260508092657 | 12 | 192 | 0.0 | 0.0 | 0.00 | 0.00 | 0.00 | 93 | 1013.3 |
| 20260508092557 | 12 | 192 | 0.0 | 0.0 | 0.00 | 0.00 | 0.00 | 93 | 1013.3 |
| 20260508092357 | 12 | 192 | 0.0 | 0.0 | 0.00 | 0.00 | 0.00 | 93 | 1013.2 |
| 20260508092257 | 12 | 192 | 0.0 | 0.0 | 0.00 | 0.00 | 0.00 | 93 | 1013.2 |
| 20260508092157 | 12 | 192 | 0.0 | 0.0 | 0.00 | 0.00 | 0.00 | 93 | 1013.3 |
| 20260508092057 | 12 | 192 | 0.0 | 0.0 | 0.00 | 0.00 | 0.00 | 93 | 1013.4 |
| 20260508091757 | 12 | 192 | 0.0 | 0.0 | 0.00 | 0.00 | 0.00 | 93 | 1013.4 |
| 20260508091656 | 12 | 192 | 0.0 | 0.0 | 0.00 | 0.00 | 0.00 | 93 | 1013.4 |
| 20260508091558 | 12 | 192 | 0.0 | 0.0 | 0.00 | 0.00 | 0.00 | 92 | 1013.0 |
| 20260508091358 | 12 | 192 | 0.0 | 0.0 | 0.00 | 0.00 | 0.00 | 92 | 1013.4 |
| 20260508091258 | 12 | 192 | 0.0 | 0.0 | 0.00 | 0.00 | 0.00 | 92 | 1013.4 |
| 20260508091157 | 12 | 192 | 0.0 | 0.0 | 0.00 | 0.00 | 0.00 | 92 | 1013.4 |
| 20260508090857 | 12 | 192 | 0.0 | 0.0 | 0.00 | 0.00 | 0.00 | 92 | 1013.2 |
| 20260508090757 | 12 | 192 | 0.0 | 0.0 | 0.00 | 0.00 | 0.00 | 92 | 1013.2 |
| 20260508090657 | 12 | 192 | 0.0 | 0.0 | 0.00 | 0.00 | 0.00 | 92 | 1013.1 |